Calls for Service

Disclaimer: This information is not intended to be used as official crime data. This program does not provide information about all crimes, and excludes specific incidents such as sexual assaults and child abuse. The City of Conway Police Department makes every effort to produce and publish current and accurate information. No warranties, expressed or implied, are provided for the data herein, its use, or its interpretation. The services provided are for informational purposes only and should not be relied on for any type of legal action.

Loading calls...
Showing calls from previous 10 days
Call Number Case Number Address Call Time Incident Type
20-0104313 2400 QUATTLEBAUM CV 2020-01-27 09:00:59.173 CHECK ON THE WELFARE
20-0104308 2050 DAVE WARD DR 2020-01-27 08:33:33.023 CHECKING PERSON
20-0104306 1775 OLD MORRILTON HWY 2020-01-27 08:08:29.133 SUSPICIOUS PERSON
20-0104305 1700 DONAGHEY AV 2020-01-27 08:06:03.310 RECKLESS DRIVER
20-0104303 707 ROBINS ST 2020-01-27 07:51:45.990 ALARM
20-0104300 555 INGRAM ST 2020-01-27 07:42:22.717 ALARM
20-0104297 670 S HOGAN LN 2020-01-27 05:59:21.143 ALARM
20-0104296 1632 DONAGHEY AV 2020-01-27 05:45:07.943 STALLED VEHICLE
20-0104295 380 HARKRIDER ST 2020-01-27 05:44:49.890 ALARM
20-0104294 20-00974 1922 KEATHLEY DR 2020-01-27 05:40:40.220 DISTURBANCE
20-0104292 1499 GARVIN AV 2020-01-27 04:02:13.587 CHECKING PERSON
20-0104291 1405 S DONAGHEY AV 2020-01-27 03:23:42.887 BATTERY REPORT
20-0104290 5120 ROUND ROCK DR 2020-01-27 03:17:04.150 FIRE DEPT ASSIST
20-0104287 1065 CLAYTON ST 2020-01-27 02:07:57.880 DOMESTIC DISTURBANCE
20-0104286 2265 MARY ALICE DR 2020-01-27 01:12:36.773 SUSPICIOUS PERSON
20-0104284 4095 PRINCE ST 2020-01-27 01:01:28.413 SUSPICIOUS VEHICLE
20-0104283 2250 LANDOVER TRL 2020-01-27 00:44:41.170 REPOSSESSION
20-0104282 2877 NUTTERS CHAPEL RD 2020-01-26 23:52:43.927 ATTEMPT TO CONTACT
20-0104281 2010 RICH SMITH LN 2020-01-26 23:43:54.157 BARKING DOG COMPLAINT
20-0104279 1601 HOGAN LN 2020-01-26 23:38:32.580 REPOSSESSION
20-0104276 20-00973 6195 DAVE WARD DR 2020-01-26 23:04:16.810 CHECKING VEHICLE
20-0104275 2090 KEATHLEY DR 2020-01-26 22:40:05.757 DOMESTIC DISTURBANCE
20-0104274 207 WILLOW ST 2020-01-26 22:31:21.257 KIDNAPPING
20-0104273 1105 PRAIRIE ST 2020-01-26 22:08:01.170 ATTEMPT TO CONTACT
20-0104272 3100 IRBY DR 2020-01-26 21:56:08.673 REPOSSESSION
20-0104271 2820 COLLEGE AV 2020-01-26 21:53:56.400 REPOSSESSION
20-0104270 407 OAK ST 2020-01-26 21:53:32.530 ALARM
20-0104268 4101 PRINCE ST 2020-01-26 21:32:15.387 RECKLESS DRIVER
20-0104267 20-00972 407 DURHAM ST 2020-01-26 21:00:49.563 DOMESTIC DISTURBANCE
20-0104266 20-00971 4 SHADY LANE DR 2020-01-26 20:57:44.167 SUPPLEMENT REPORT CALL
20-0104265 2200 WASHINGTON AV 2020-01-26 20:39:30.057 DOMESTIC DISTURBANCE
20-0104263 501 ELSINGER BLVD 2020-01-26 20:35:25.667 RECKLESS DRIVER
20-0104262 20-00969 3070 YORK LN 2020-01-26 19:59:22.240 ACCIDENT - PERSONAL INJURY
20-0104261 283 PICKWICKET DR 2020-01-26 19:50:09.653 ATTEMPT TO CONTACT
20-0104259 20-00968 3087 NAPA VALLEY DR 2020-01-26 19:34:23.233 ACCIDENT - PROPERTY DAMAGE
20-0104256 895 CRESTLINER DR 2020-01-26 19:07:10.840 911 HANGUP CALL
20-0104253 20-00967 3155 DAVE WARD DR 2020-01-26 18:29:17.760 ACCIDENT - HIT AND RUN
20-0104252 1100 E OAK ST 2020-01-26 18:27:29.593 CHECKING VEHICLE
20-0104251 20-00966 501 ELSINGER BLVD 2020-01-26 18:11:09.183 SHOPLIFTING
20-0104250 2505 E OAK ST 2020-01-26 18:01:10.447 RECKLESS DRIVER
20-0104249 3801 PRINCE ST 2020-01-26 17:50:44.037 TRAFFIC PROBLEM-CONTROL
20-0104248 20-00965 2290 APPLE BLOSSOM 2020-01-26 17:41:24.207 DOMESTIC DISTURBANCE
20-0104247 2270 MEADOWLAKE RD 2020-01-26 17:14:11.027 ATTEMPT TO CONTACT
20-0104246 2100 DAVE WARD DR 2020-01-26 17:02:44.363 MISSING PERSON
20-0104245 20-00962 1909 CREEKWOOD DR 2020-01-26 17:00:11.160 THEFT OF PROPERTY
20-0104243 20-00961 855 SALEM RD 2020-01-26 16:18:08.313 ACCIDENT - PRIVATE PROPERTY
20-0104242 20-00960 134 HARKRIDER ST 2020-01-26 16:14:47.363 CHECK ON THE WELFARE
20-0104241 1720 OLD MORRILTON HWY 2020-01-26 16:14:00.440 DISTURBANCE
20-0104239 1200 OLD MORRILTON HWY 2020-01-26 15:48:50.500 ATTEMPT TO CONTACT
20-0104238 1100 NEAL ST 2020-01-26 15:38:41.867 TRAFFIC PROBLEM-CONTROL
20-0104237 420 OAK ST 2020-01-26 15:22:56.050 SUSPICIOUS ACTIVITY
20-0104236 1105 PRAIRIE ST 2020-01-26 15:16:05.053 CIVIL STAND BY
20-0104234 1405 S DONAGHEY AV 2020-01-26 15:14:18.293 CHECKING VEHICLE
20-0104232 3215 MAJESTIC CIR 2020-01-26 14:49:29.683 ALARM
20-0104229 1450 APPALACHAIN DR 2020-01-26 14:25:26.080 LOUD NOISE-MUSIC
20-0104227 1290 S AMITY RD 2020-01-26 14:12:54.940 SUSPICIOUS ACTIVITY
20-0104225 650 SKYLINE DR 2020-01-26 14:03:04.120 CHECK ON THE WELFARE
20-0104224 2420 BROADVIEW AV 2020-01-26 13:59:16.030 SUSPICIOUS ACTIVITY
20-0104219 201 2ND ST 2020-01-26 13:36:28.057 CHECK ON THE WELFARE
20-0104216 20-00956 501 ELSINGER BLVD 2020-01-26 13:18:15.190 THEFT OF PROPERTY
20-0104214 1629 SOUTH BLVD 2020-01-26 13:02:38.780 ABANDONED VEHICLE
20-0104211 1205 DAVE WARD DR 2020-01-26 12:45:24.083 FIRE DEPT ASSIST
20-0104210 810 MUSEUM RD 2020-01-26 12:38:46.223 CHECK ON THE WELFARE
20-0104207 20-00953 2899 MEADOWLAKE RD 2020-01-26 12:22:10.120 ACCIDENT - PROPERTY DAMAGE
20-0104206 2020-01-26 12:15:08.057 CHECK ON THE WELFARE
20-0104205 313 MILDRED ST 2020-01-26 11:51:58.340 REPOSSESSION
20-0104204 20-00952 4000 TYLER ST 2020-01-26 11:39:54.110 BREAKING OR ENTERING
20-0104202 1701 DONAGHEY AV 2020-01-26 11:30:54.190 CHECK ON THE WELFARE
20-0104198 126 OAK ST 2020-01-26 10:55:17.093 CHECK ON THE WELFARE
20-0104197 1080 RIO GRANDE RD 2020-01-26 10:28:01.070 ATTEMPT TO CONTACT
20-0104196 429 HELEN ST 2020-01-26 10:23:11.107 SERVING SUBPOENA
20-0104194 1105 DAVE WARD DR 2020-01-26 10:10:51.720 CHECK ON THE WELFARE
20-0104192 20-00951 3700 JEANNA DR 2020-01-26 09:44:30.297 ACCIDENT - PROPERTY DAMAGE
20-0104191 4475 THOMPSON ST 2020-01-26 09:43:56.590 CIVIL MATTER
20-0104190 20-00950 1600 E OAK ST 2020-01-26 09:31:38.263 ACCIDENT - PROPERTY DAMAGE
20-0104189 563 ELSINGER BLVD 2020-01-26 09:28:44.230 ALARM
20-0104186 1300 WOODSIDE DR 2020-01-26 08:43:16.447 SUSPICIOUS PERSON
20-0104181 650 SKYLINE DR 2020-01-26 07:13:35.420 TRAFFIC PROBLEM-CONTROL
20-0104180 1213 COLLIER DR 2020-01-26 06:31:01.893 SUSPICIOUS PERSON
20-0104178 2665 DONAGHEY AV 2020-01-26 04:17:18.673 ALARM
20-0104177 1055 STEEL AV 2020-01-26 03:08:13.453 CHECKING VEHICLE
20-0104175 3925 DAVE WARD DR 2020-01-26 02:52:54.110 CHECKING VEHICLE
20-0104173 545 SKYLINE DR 2020-01-26 01:30:12.250 AGENCY ASSIST
20-0104172 2200 WASHINGTON AV 2020-01-26 01:27:21.773 BURGLARY
20-0104171 2730 DAVE WARD DR 2020-01-26 01:07:40.100 LOUD NOISE-MUSIC
20-0104170 1601 HOGAN LN 2020-01-26 00:46:05.397 LOUD NOISE-MUSIC
20-0104169 2080 BROADVIEW AV 2020-01-26 00:40:22.340 DOMESTIC DISTURBANCE
20-0104167 530 S DONAGHEY AV 2020-01-26 00:34:52.543 LOUD NOISE-MUSIC
20-0104166 1 CADRON SETTLEMENT PARK RD 2020-01-26 00:20:12.693 CHECKING VEHICLE
20-0104162 2100 DAVE WARD DR 2020-01-25 23:36:39.547 RECKLESS DRIVER
20-0104159 1100 MCNUTT RD 2020-01-25 23:10:52.650 CITIZEN ASSIST
20-0104157 260 SALEM RD 2020-01-25 22:54:54.750 CHECKING VEHICLE
20-0104156 799 S HOGAN LN 2020-01-25 22:54:25.063 CHECKING VEHICLE
20-0104155 703 GROVE ST 2020-01-25 22:53:08.210 BARKING DOG COMPLAINT
20-0104153 20-00948 500 SOUTH GERMAN LN 2020-01-25 22:25:57.723 MISDEMEANOR WARRANT SERVICE
20-0104152 20-00947 1200 OLD MORRILTON HWY 2020-01-25 22:08:07.057 BATTERY REPORT
20-0104150 1055 STEEL AV 2020-01-25 21:40:48.960 SUPPLEMENT REPORT CALL
20-0104148 1405 E OAK ST 2020-01-25 21:13:32.047 OPEN DOOR/WINDOW/FENCE
20-0104147 20-00946 1820 HOGAN LN 2020-01-25 21:12:05.590 BREAKING OR ENTERING
20-0104146 475 ROBINS ST 2020-01-25 21:11:53.090 LOUD NOISE-MUSIC
20-0104145 661 DAVE WARD DR 2020-01-25 21:08:55.310 STALLED VEHICLE
20-0104144 511 1ST ST 2020-01-25 21:08:47.733 DOMESTIC DISTURBANCE
20-0104141 655 ELSINGER BLVD 2020-01-25 20:35:51.563 CRIMINAL MISCHIEF
20-0104140 3430 IRBY DR 2020-01-25 20:33:36.127 LOUD NOISE-MUSIC
20-0104139 1008 SALEM RD 2020-01-25 20:31:37.463 CHECK ON THE WELFARE
20-0104138 2575 FOREST VIEW DR 2020-01-25 20:18:50.863 ALARM
20-0104134 375 MONROE ST 2020-01-25 19:59:16.100 ATTEMPT TO CONTACT
20-0104133 20-00945 1155 SKYLINE DR 2020-01-25 19:55:06.320 SHOPLIFTING
20-0104131 20-00944 380 HARKRIDER ST 2020-01-25 19:49:12.477 SHOPLIFTING
20-0104128 407 HEREFORD ST 2020-01-25 19:37:10.870 ATTEMPT TO CONTACT
20-0104123 2020-01-25 19:26:31.733 ATTEMPT TO CONTACT
20-0104122 375 MONROE ST 2020-01-25 19:24:41.403 SUPPLEMENT REPORT CALL
20-0104121 1620 MIDDLE RD 2020-01-25 19:20:53.100 DOMESTIC DISTURBANCE
20-0104120 3645 ASPEN CIR 2020-01-25 19:15:46.783 ALARM
20-0104119 2100 DAVE WARD DR 2020-01-25 19:13:04.407 RECKLESS DRIVER
20-0104115 315 HUBBARD RD 2020-01-25 18:54:23.427 THEFT OF VEHICLE
20-0104113 20-00943 1870 S SALEM RD 2020-01-25 18:49:31.017 CRIMINAL MISCHIEF
20-0104111 20-00941 1055 STEEL AV 2020-01-25 18:44:21.313 THEFT OF PROPERTY
20-0104109 1405 S DONAGHEY AV 2020-01-25 18:10:16.697 CIVIL MATTER
20-0104108 2730 DAVE WARD DR 2020-01-25 17:59:19.920 ALARM
20-0104107 20-00939 825 OAK ST 2020-01-25 17:57:39.623 ACCIDENT - PEDESTRIAN
20-0104105 1410 CHAMPIONS DR 2020-01-25 17:48:42.757 TERRORISTIC THREATENING
20-0104103 2560 APPLE BLOSSOM 2020-01-25 17:22:41.267 ALARM
20-0104102 707 ROBINS ST 2020-01-25 17:05:39.337 ATTEMPT TO CONTACT
20-0104101 20-00938 410 ELSINGER BLVD 2020-01-25 17:01:30.847 ACCIDENT - PRIVATE PROPERTY
20-0104100 20-00937 813 OAK ST 2020-01-25 16:50:51.487 ACCIDENT - PRIVATE PROPERTY
20-0104099 20-00936 860 ELSINGER BLVD 2020-01-25 16:27:53.833 FOUND PROPERTY
20-0104098 126 OAK ST 2020-01-25 16:26:47.570 SUPPLEMENT REPORT CALL
20-0104097 1900 TYLER ST 2020-01-25 16:23:42.700 TERRORISTIC THREATENING
20-0104093 1000 WATKINS ST 2020-01-25 16:04:30.710 FOUND PROPERTY
20-0104092 801 ELSINGER BLVD 2020-01-25 15:56:26.530 THEFT OF PROPERTY
20-0104091 501 ELSINGER BLVD 2020-01-25 15:47:33.650 THEFT OF PROPERTY
20-0104090 2665 DONAGHEY AV 2020-01-25 15:35:12.790 THEFT OF PROPERTY
20-0104089 2270 MEADOWLAKE RD 2020-01-25 15:24:20.137 CHECK ON THE WELFARE
20-0104088 1191 STURGIS RD 2020-01-25 15:23:29.367 ALARM
20-0104087 20-00934 620 ELSINGER BLVD 2020-01-25 15:23:06.127 THEFT OF PROPERTY
20-0104086 1155 SKYLINE DR 2020-01-25 15:11:02.907 STALLED VEHICLE
20-0104085 501 ELSINGER BLVD 2020-01-25 15:04:39.847 CHECK ON THE WELFARE
20-0104084 504 E OAK ST 2020-01-25 15:03:53.230 SUSPICIOUS PERSON
20-0104083 1115 E OAK ST 2020-01-25 14:56:42.193 ACCIDENT - PRIVATE PROPERTY
20-0104082 1702 HARKRIDER ST 2020-01-25 14:52:52.367 SUSPICIOUS PERSON
20-0104081 20-00931 607 ELSINGER BLVD 2020-01-25 14:50:36.210 THEFT OF PROPERTY
20-0104080 20-00935 1325 OLD MORRILTON HWY 2020-01-25 14:46:45.857 ACCIDENT - PRIVATE PROPERTY
20-0104079 2525 DONAGHEY AV 2020-01-25 14:44:26.637 ATTEMPT TO CONTACT
20-0104078 3645 ASPEN CIR 2020-01-25 14:30:40.470 TRESPASSING
20-0104076 650 SKYLINE DR 2020-01-25 14:11:05.727 TRAFFIC PROBLEM-CONTROL
20-0104075 20-00933 600 ELSINGER BLVD 2020-01-25 14:10:37.683 THEFT OF PROPERTY
20-0104074 1839 TYLER ST 2020-01-25 13:58:15.503 ATTEMPT TO CONTACT
20-0104069 1155 SKYLINE DR 2020-01-25 13:42:31.050 CHECK ON THE WELFARE
20-0104068 4 SHADY LANE DR 2020-01-25 13:38:39.863 ATTEMPT TO CONTACT
20-0104067 20-00930 1605 DAVE WARD DR 2020-01-25 13:34:47.537 ACCIDENT - PRIVATE PROPERTY
20-0104066 2100 FAVRE LN 2020-01-25 13:32:30.883 CHECK ON THE WELFARE
20-0104064 103 OAK ST 2020-01-25 13:05:27.070 SUPPLEMENT REPORT CALL
20-0104063 20-00928 150 E OAK ST 2020-01-25 12:53:49.070 THEFT OF PROPERTY
20-0104062 20-00929 250 S MITCHELL ST 2020-01-25 12:38:52.620 ACCIDENT - PRIVATE PROPERTY
20-0104059 501 MONROE ST 2020-01-25 12:23:15.053 RECKLESS DRIVER
20-0104056 20-00926 103 OAK ST 2020-01-25 11:46:11.267 SUSPICIOUS PERSON
20-0104052 815 E OAK ST 2020-01-25 11:19:37.537 MISDEMEANOR WARRANT SERVICE
20-0104051 801 SOUTH GERMAN LN 2020-01-25 11:16:51.943 ATTEMPT TO CONTACT
20-0104050 151 SKYLINE DR 2020-01-25 11:09:48.440 ATTEMPT TO CONTACT
20-0104048 815 E OAK ST 2020-01-25 10:42:42.133 CHECKING VEHICLE
20-0104047 2010 ARKANSAS AV 2020-01-25 10:25:16.863 DOMESTIC DISTURBANCE
20-0104044 3215 MAJESTIC CIR 2020-01-25 10:17:37.163 ALARM
20-0104043 815 NORTH CREEK DR 2020-01-25 10:15:56.377 ALARM
20-0104042 1105 PRAIRIE ST 2020-01-25 10:14:52.097 ATTEMPT TO CONTACT
20-0104039 20-00925 600 WESTHAVEN DR 2020-01-25 09:48:53.960 CRIMINAL MISCHIEF
20-0104035 401 2ND ST 2020-01-25 09:36:06.023 CHECKING VEHICLE
20-0104033 1525 CLIFTON ST 2020-01-25 09:23:30.807 SERVING SUBPOENA
20-0104031 530 S DONAGHEY AV 2020-01-25 09:08:55.897 CHECK ON THE WELFARE
20-0104030 2200 WASHINGTON AV 2020-01-25 09:08:22.927 SERVING SUBPOENA
20-0104029 1095 SKYLINE DR 2020-01-25 09:00:09.297 SERVING SUBPOENA
20-0104028 1716 ROBINS ST 2020-01-25 08:45:12.657 SERVING SUBPOENA
20-0104027 475 ROBINS ST 2020-01-25 08:26:58.430 SERVING SUBPOENA
20-0104025 1620 MIDDLE RD 2020-01-25 08:07:12.550 ATTEMPT TO CONTACT
20-0104024 2820 MAKENZIE DR 2020-01-25 08:01:12.233 TRAFFIC PROBLEM-CONTROL
20-0104020 801 SOUTH GERMAN LN 2020-01-25 07:44:03.473 FIRE DEPT ASSIST
20-0104018 1620 MIDDLE RD 2020-01-25 07:30:55.127 ATTEMPT TO CONTACT
20-0104015 3501 COLLEGE AV 2020-01-25 07:12:33.770 ACCIDENT - PRIVATE PROPERTY
20-0104011 509 POLK ST 2020-01-25 06:06:04.237 MISSING PERSON
20-0104010 2225 PRINCE ST 2020-01-25 04:49:52.667 CHECKING VEHICLE
20-0104009 2100 CALDWELL ST 2020-01-25 03:31:16.440 REPOSSESSION
20-0104008 1493 MANOR ST 2020-01-25 03:21:12.467 SUPPLEMENT REPORT CALL
20-0104007 1680 FAVRE LN 2020-01-25 02:56:48.497 RECKLESS DRIVER
20-0104006 2140 CEDAR OAKS DR 2020-01-25 02:55:24.357 HARASSMENT
20-0104003 124 I40EB 2020-01-25 02:11:51.613 RECKLESS DRIVER
20-0104002 20-00922 1493 MANOR ST 2020-01-25 01:46:31.640 DOMESTIC DISTURBANCE
20-0103999 20-00921 2490 SANDERS ST 2020-01-25 01:25:52.653 DISTURBANCE
20-0103998 20-00920 2500 DAVE WARD DR 2020-01-25 00:34:11.687 ACCIDENT - PROPERTY DAMAGE
20-0103996 20-00918 2205 DAVE WARD DR 2020-01-25 00:22:24.727 ACCIDENT - HIT AND RUN
20-0103995 20-00923 500 SOUTH GERMAN LN 2020-01-25 00:14:29.173 MISDEMEANOR WARRANT SERVICE
20-0103994 2515 COLLEGE AV 2020-01-25 00:10:12.587 CHECKING PERSON
20-0103991 1815 OLD MORRILTON HWY 2020-01-24 23:57:29.610 CHECK ON THE WELFARE
20-0103988 1599 GRANDVIEW HEIGHTS DR 2020-01-24 23:27:16.910 CHECKING VEHICLE
20-0103984 20-00916 1429 BEAN ST 2020-01-24 22:57:14.193 DOMESTIC DISTURBANCE
20-0103980 1400 HARKRIDER ST 2020-01-24 22:43:01.987 SUSPICIOUS VEHICLE
20-0103977 1600 E OAK ST 2020-01-24 22:28:22.457 ALARM
20-0103976 2640 PRINCE ST 2020-01-24 22:23:47.287 CHECKING VEHICLE
20-0103975 3025 OLD MORRILTON HWY 2020-01-24 22:22:19.290 LOUD NOISE-MUSIC
20-0103971 801 ELSINGER BLVD 2020-01-24 22:08:19.223 SUSPICIOUS PERSON
20-0103963 3135 PEBBLE BEACH DR 2020-01-24 21:45:09.167 SUSPICIOUS VEHICLE
20-0103961 1200 THOMAS G WILSON DR 2020-01-24 21:35:56.490 ALARM
20-0103959 2710 PRINCE ST 2020-01-24 21:32:06.383 FIGHT
20-0103958 20-00915 900 CRAIN DR 2020-01-24 21:30:36.837 DISTURBANCE
20-0103953 1155 SKYLINE DR 2020-01-24 21:06:06.637 CHECK ON THE WELFARE
20-0103950 20-00913 2300 PRINCE ST 2020-01-24 20:51:52.753 ACCIDENT - PRIVATE PROPERTY
20-0103948 20-00914 1701 DAVE WARD DR 2020-01-24 20:44:10.783 THEFT OF PROPERTY
20-0103944 300 GRANDVIEW HEIGHTS DR 2020-01-24 20:22:14.140 CHECKING VEHICLE
20-0103943 100 GRANDVIEW HEIGHTS DR 2020-01-24 20:15:40.170 CHECKING VEHICLE
20-0103941 2920 LAKEVIEW ACRES RD 2020-01-24 19:59:04.963 ALARM
20-0103940 3700 DONNELL RIDGE RD 2020-01-24 19:41:14.227 CRIMINAL MISCHIEF
20-0103938 5000 LONGWALL DR 2020-01-24 19:15:21.633 SUSPICIOUS PERSON
20-0103936 3335 PEBBLE BEACH DR 2020-01-24 19:00:35.473 HARASSMENT
20-0103935 2670 DONAGHEY AV 2020-01-24 18:24:12.860 SUSPICIOUS PERSON
20-0103934 525 SKYLINE DR 2020-01-24 18:20:53.733 CHECK ON THE WELFARE
20-0103933 820 E OAK ST 2020-01-24 18:08:43.540 DISTURBANCE
20-0103932 407 HEREFORD ST 2020-01-24 17:54:29.313 ATTEMPT TO CONTACT
20-0103931 221 MILL ST 2020-01-24 17:50:27.430 ATTEMPT TO CONTACT
20-0103930 801 S SALEM RD 2020-01-24 17:39:31.523 ACCIDENT - PROPERTY DAMAGE
20-0103929 2101 PRINCE ST 2020-01-24 17:05:44.120 ACCIDENT - PROPERTY DAMAGE
20-0103928 1620 MIDDLE RD 2020-01-24 16:57:34.997 SUPPLEMENT REPORT CALL
20-0103927 1315 JOYNER DR 2020-01-24 16:27:55.287 FRAUD
20-0103926 3430 IRBY DR 2020-01-24 16:12:31.293 SUSPICIOUS ACTIVITY
20-0103925 20-00910 707 ROBINS ST 2020-01-24 15:56:58.397 THEFT OF PROPERTY
20-0103923 428 HELEN ST 2020-01-24 15:50:18.010 ATTEMPT TO CONTACT
20-0103922 645 BONNIE LN 2020-01-24 15:49:31.007 INTERFERENCE WITH CUSTODY
20-0103920 20-00911 2101 PRINCE ST 2020-01-24 15:37:43.263 ACCIDENT - PROPERTY DAMAGE
20-0103919 801 S SALEM RD 2020-01-24 15:33:47.050 SUSPICIOUS PERSON
20-0103917 20-00909 100 AMITY RD 2020-01-24 15:28:18.963 ACCIDENT - PROPERTY DAMAGE
20-0103915 1445 HOGAN LN 2020-01-24 15:16:31.353 ALARM - HOLD UP or PANIC
20-0103914 1405 LOLLIE RD 2020-01-24 15:11:54.590 ATTEMPT TO CONTACT
20-0103913 36 TUCKER CREEK RD 2020-01-24 14:59:06.843 ALARM
20-0103908 3501 COLLEGE AV 2020-01-24 14:20:30.623 AGENCY ASSIST
20-0103906 2101 COLLEGE AV 2020-01-24 13:46:41.750 TRAFFIC LIGHT PROBLEM
20-0103904 20-00903 200 E DAVE WARD DR 2020-01-24 13:31:56.133 ACCIDENT - PROPERTY DAMAGE
20-0103903 4298 SALEM RD 2020-01-24 13:27:40.920 ABANDONED VEHICLE
20-0103902 1705 S SALEM RD 2020-01-24 13:22:08.013 VEHICLE TOW
20-0103901 1945 E OAK ST 2020-01-24 13:20:56.873 ATTEMPT TO CONTACT
20-0103898 20-00900 1055 STEEL AV 2020-01-24 13:13:02.043 ACCIDENT - PROPERTY DAMAGE
20-0103897 1705 S SALEM RD 2020-01-24 13:12:56.807 VEHICLE TOW
20-0103896 1705 S SALEM RD 2020-01-24 13:10:01.910 VEHICLE TOW
20-0103895 4106 MALLARD LN 2020-01-24 13:09:36.853 BATTERY REPORT
20-0103893 2870 REDHAVEN DR 2020-01-24 12:49:25.320 ALARM
20-0103891 1365 CHAMPIONS DR 2020-01-24 12:33:55.460 ATTEMPT TO CONTACT
20-0103890 20-00899 475 ROBINS ST 2020-01-24 12:28:50.660 TERRORISTIC THREATENING
20-0103889 801 ELSINGER BLVD 2020-01-24 12:20:20.917 CHECK ON THE WELFARE
20-0103888 20-00897 1000 E SIEBENMORGEN RD 2020-01-24 12:18:44.567 LOST PROPERTY
20-0103887 601 DAVE WARD DR 2020-01-24 12:14:18.797 RECKLESS DRIVER
20-0103885 2110 HARKRIDER ST 2020-01-24 12:01:13.197 SUPPLEMENT REPORT CALL
20-0103884 2302 COLLEGE AV 2020-01-24 11:59:35.463 ATTEMPT TO CONTACT
20-0103883 900 WINEBERRY RD 2020-01-24 11:55:03.170 SUSPICIOUS VEHICLE
20-0103882 5665 GRAND TETON LN 2020-01-24 11:48:08.183 ALARM
20-0103880 2255 STURGIS RD 2020-01-24 11:38:25.397 AGENCY ASSIST
20-0103877 3045 WESTOVER DR 2020-01-24 11:24:50.560 SUPPLEMENT REPORT CALL
20-0103875 560 EVENING DR 2020-01-24 11:15:37.343 FRAUD
20-0103872 2302 COLLEGE AV 2020-01-24 11:03:51.720 DISTURBANCE
20-0103870 230 CONWAY BLVD 2020-01-24 11:01:00.703 SUPPLEMENT REPORT CALL
20-0103869 20-00894 1620 DUKE ST 2020-01-24 10:57:22.660 ATTEMPT TO CONTACT
20-0103868 2319 MARTHA DR 2020-01-24 10:56:25.953 LOST PROPERTY
20-0103866 20-00893 1100 MAIN ST 2020-01-24 10:49:04.443 ACCIDENT - PRIVATE PROPERTY
20-0103865 1680 GARDENIA 2020-01-24 10:43:36.537 PROPERTY DAMAGE
20-0103863 1680 GARDENIA 2020-01-24 10:39:52.833 CRIMINAL MISCHIEF
20-0103861 2200 WASHINGTON AV 2020-01-24 10:35:17.957 ATTEMPT TO CONTACT
20-0103858 20-00891 607 OAK ST 2020-01-24 10:09:09.667 FRAUD
20-0103857 755 ELSINGER BLVD 2020-01-24 10:07:06.467 ATTEMPT TO CONTACT
20-0103856 600 GARLAND ST 2020-01-24 10:05:20.270 ABANDONED VEHICLE
20-0103855 20-00890 2655 POPPY CV 2020-01-24 10:00:07.227 DOMESTIC DISTURBANCE
20-0103854 20-00888 3725 COLLEGE AV 2020-01-24 09:59:21.240 ACCIDENT - PROPERTY DAMAGE
20-0103852 20-00889 825 OAK ST 2020-01-24 09:49:33.643 FORGERY
20-0103848 20-00886 1701 HAIRSTON AV 2020-01-24 09:28:02.597 FIGHT
20-0103841 2070 BELLINGRATH GARDENS 2020-01-24 08:23:18.980 ALARM
20-0103838 220 S MITCHELL ST 2020-01-24 08:12:56.243 ANIMAL BITE
20-0103833 1500 MUSEUM RD 2020-01-24 08:01:17.530 STALLED VEHICLE
20-0103830 20-00884 1001 SPRUCE ST 2020-01-24 07:30:31.730 ACCIDENT - PROPERTY DAMAGE
20-0103829 2510 PRINCE ST 2020-01-24 07:15:23.137 CHECKING VEHICLE
20-0103828 4267 BOONE LP 2020-01-24 07:14:58.660 FIRE DEPT ASSIST
20-0103826 1775 OLD MORRILTON HWY 2020-01-24 07:04:27.890 CHECKING VEHICLE
20-0103825 4001 SALEM RD 2020-01-24 06:40:15.083 RECKLESS DRIVER
20-0103823 239 MILL POND RD 2020-01-24 06:16:26.623 ALARM
20-0103822 1235 SEA BREEZE DR 2020-01-24 05:44:51.053 SUSPICIOUS ACTIVITY
20-0103820 815 NORTH CREEK DR 2020-01-24 05:22:10.140 ALARM
20-0103819 1660 LAINEY DR 2020-01-24 05:20:43.300 CHECKING BUILDING
20-0103818 1133 GUM ST 2020-01-24 05:19:10.090 REPOSSESSION
20-0103817 5100 APRIL DR 2020-01-24 04:26:03.130 AUDIBLE ALARM
20-0103816 5 SUSAN LN 2020-01-24 03:40:49.587 LOUD NOISE-MUSIC
20-0103815 801 SCHERMAN OAKS CIR 2020-01-24 03:24:05.267 AUDIBLE ALARM
20-0103811 835 S DONAGHEY AV 2020-01-24 01:34:48.310 VEHICLE TOW
20-0103810 1105 PRAIRIE ST 2020-01-24 01:30:19.870 STALLED VEHICLE
20-0103809 2050 DAVE WARD DR 2020-01-24 01:15:46.397 CHECK ON THE WELFARE
20-0103808 150 S ASH ST 2020-01-24 00:52:51.123 CHECKING VEHICLE
20-0103807 2501 ADAMSBROOKE DR 2020-01-24 00:35:33.743 CHECKING PERSON
20-0103805 2585 DONAGHEY AV 2020-01-24 00:04:53.827 CHECKING PERSON
20-0103803 2235 DAVE WARD DR 2020-01-23 23:26:29.817 ALARM
20-0103800 2 KENSINGTON DR 2020-01-23 22:51:12.917 ATTEMPT TO CONTACT
20-0103798 2560 DONAGHEY AV 2020-01-23 21:58:20.180 SUSPICIOUS VEHICLE
20-0103797 20-00882 530 S DONAGHEY AV 2020-01-23 21:56:45.070 PARKING VIOLATION
20-0103796 3995 FRIENDSHIP RD 2020-01-23 21:53:53.527 CHECKING VEHICLE
20-0103794 2100 DAVE WARD DR 2020-01-23 21:48:59.147 RECKLESS DRIVER
20-0103792 1637 SYLAR CIR 2020-01-23 21:16:39.913 CHECKING BUILDING
20-0103790 867 FENDLEY DR 2020-01-23 21:10:13.013 SUSPICIOUS VEHICLE
20-0103789 755 ELSINGER BLVD 2020-01-23 21:06:27.593 ATTEMPT TO CONTACT
20-0103788 2205 DAVE WARD DR 2020-01-23 20:32:45.810 SUSPICIOUS VEHICLE
20-0103781 20-00881 1905 OLD MORRILTON HWY 2020-01-23 20:10:20.693 CHECKING PERSON
20-0103776 475 ROBINS ST 2020-01-23 19:44:39.077 LOUD NOISE-MUSIC
20-0103774 20-00880 3900 DAVE WARD DR 2020-01-23 19:29:07.010 BREAKING OR ENTERING
20-0103772 115 LAS COLINAS 2020-01-23 19:22:56.570 ATTEMPT TO CONTACT
20-0103770 475 ROBINS ST 2020-01-23 19:08:42.527 LOUD NOISE-MUSIC
20-0103769 10 LOWER RIDGE RD 2020-01-23 19:04:03.993 DISTURBANCE
20-0103768 4001 OLD MORRILTON HWY 2020-01-23 18:42:50.123 RECKLESS DRIVER
20-0103767 449 REEDY RD 2020-01-23 18:36:58.267 ALARM
20-0103765 20-00879 2150 HARKRIDER ST 2020-01-23 18:14:48.723 FRAUD
20-0103764 2080 BROADVIEW AV 2020-01-23 18:10:43.643 THEFT OF PROPERTY
20-0103763 34 SHADY VALLEY DR 2020-01-23 18:09:18.820 ALARM
20-0103762 20-00878 1405 BLUSTERY WAY 2020-01-23 18:06:56.327 PROPERTY DAMAGE
20-0103760 2700 ALLYSON LN 2020-01-23 17:30:56.113 ALARM
20-0103758 20-00877 1209 E OAK ST 2020-01-23 17:16:45.353 ACCIDENT - PROPERTY DAMAGE
20-0103757 2745 CARL STUART ST 2020-01-23 17:13:16.423 LOST CHILD-FOUND CHILD
20-0103756 2670 DONAGHEY AV 2020-01-23 17:07:01.730 TERRORISTIC THREATENING
20-0103755 3335 BLUEBONNET LN 2020-01-23 17:04:29.097 ALARM
20-0103754 20-00876 201 SKYLINE DR 2020-01-23 16:53:49.453 THEFT OF PROPERTY
20-0103753 3300 PEBBLE BEACH DR 2020-01-23 16:53:29.950 VEHICLE TOW
20-0103752 3150 PEBBLE BEACH DR 2020-01-23 16:43:28.927 SUPPLEMENT REPORT CALL
20-0103751 902 S SALEM RD 2020-01-23 16:42:00.080 CHECKING VEHICLE
20-0103750 20-00875 1030 SKYLINE DR 2020-01-23 16:24:42.953 GAS DRIVE OFF
20-0103748 530 S DONAGHEY AV 2020-01-23 16:09:22.000 ALARM
20-0103747 1501 COLLEGE AV 2020-01-23 16:07:17.683 RECKLESS DRIVER
20-0103746 2125 HARKRIDER ST 2020-01-23 16:01:39.530 SUPPLEMENT REPORT CALL
20-0103745 20-00874 3150 PEBBLE BEACH DR 2020-01-23 15:58:34.627 DISTURBANCE
20-0103744 20-00873 1620 MIDDLE RD 2020-01-23 15:52:05.623 THEFT OF PROPERTY
20-0103743 550 S AMITY RD 2020-01-23 15:47:22.010 DISTURBANCE
20-0103742 1325 MUSEUM RD 2020-01-23 15:44:29.690 CHECKING VEHICLE
20-0103741 2915 DAVE WARD DR 2020-01-23 15:39:06.283 CHECKING PERSON
20-0103740 101 OAK ST 2020-01-23 15:36:17.620 CIVIL STAND BY
20-0103739 20-00872 1200 E DAVE WARD DR 2020-01-23 15:36:05.170 ACCIDENT - PROPERTY DAMAGE
20-0103738 740 S SALEM RD 2020-01-23 15:32:17.690 HARASSMENT
20-0103736 20-00871 2050 DAVE WARD DR 2020-01-23 15:16:23.730 CHECKING VEHICLE
20-0103733 20-00858 1620 MIDDLE RD 2020-01-23 14:43:21.287 PROPERTY DAMAGE
20-0103732 2900 DAVE WARD DR 2020-01-23 14:41:42.770 RECKLESS DRIVER
20-0103731 20-00859 1310 E OAK ST 2020-01-23 14:41:06.713 ACCIDENT - PRIVATE PROPERTY
20-0103729 125 I40EB 2020-01-23 14:31:08.523 RECKLESS DRIVER
20-0103728 620 EAST GERMAN LN 2020-01-23 14:25:58.213 BURGLARY
20-0103727 20-00855 2110 HARKRIDER ST 2020-01-23 14:24:51.570 ACCIDENT - PROPERTY DAMAGE
20-0103726 602 1ST AV 2020-01-23 14:15:58.960 ILLEGAL DUMPING
20-0103725 1200 E DAVE WARD DR 2020-01-23 14:12:02.363 SUPPLEMENT REPORT CALL
20-0103724 3035 PLATEAU DRIVE 2020-01-23 14:09:50.070 ATTEMPT TO CONTACT
20-0103723 1016 MARKHAM ST 2020-01-23 13:54:22.920 UNAUTHORIZED USE OF MOTOR VEHICLE
20-0103722 900 OAK ST 2020-01-23 13:45:05.587 CHECK ON THE WELFARE
20-0103721 20-00844 1170 S AMITY RD 2020-01-23 13:39:43.720 THEFT OF SERVICES
20-0103719 20-00839 1815 MILESTONE DR 2020-01-23 13:21:41.847 HARASSMENT
20-0103717 1325 MUSEUM RD 2020-01-23 13:11:35.980 ATTEMPT TO CONTACT
20-0103715 720 S MITCHELL ST 2020-01-23 13:06:55.137 FELONY WARRANT SERVICE
20-0103714 601 ELSINGER BLVD 2020-01-23 12:51:12.383 SUPPLEMENT REPORT CALL
20-0103708 20-00824 1209 E OAK ST 2020-01-23 11:48:25.470 ACCIDENT - PROPERTY DAMAGE
20-0103707 20-00822 125 I40EB 2020-01-23 11:29:54.517 ACCIDENT - PROPERTY DAMAGE
20-0103706 401 2ND ST 2020-01-23 11:23:18.013 SUSPICIOUS ACTIVITY
20-0103703 2300 HOGAN LN 2020-01-23 11:01:29.597 ATTEMPT TO CONTACT
20-0103702 2270 MEADOWLAKE RD 2020-01-23 10:53:51.933 ATTEMPT TO CONTACT
20-0103700 841 WATKINS ST 2020-01-23 10:37:34.550 ATTEMPT TO CONTACT
20-0103699 20-00821 1105 PRAIRIE ST 2020-01-23 10:35:30.343 FELONY WARRANT SERVICE
20-0103697 1313 MCNUTT RD 2020-01-23 10:29:10.997 ATTEMPT TO CONTACT
20-0103695 355 LEDGELAWN DR 2020-01-23 10:14:13.727 VEHICLE TOW
20-0103686 1001 SALEM RD 2020-01-23 09:50:31.340 RECKLESS DRIVER
20-0103683 20-00818 1105 PRAIRIE ST 2020-01-23 09:35:24.837 FELONY WARRANT SERVICE
20-0103680 20-00817 855 SOUTH GERMAN LN 2020-01-23 09:05:10.690 ACCIDENT - PROPERTY DAMAGE
20-0103678 20-00816 810 PARKWAY ST 2020-01-23 08:55:16.287 MISDEMEANOR WARRANT SERVICE
20-0103677 20-00815 810 PARKWAY ST 2020-01-23 08:54:47.467 MISDEMEANOR WARRANT SERVICE
20-0103675 20-00814 810 PARKWAY ST 2020-01-23 08:43:45.910 MISDEMEANOR WARRANT SERVICE
20-0103670 1399 PRAIRIE ST 2020-01-23 08:25:21.980 CHECK ON THE WELFARE
20-0103666 2745 CARL STUART ST 2020-01-23 07:49:48.137 PURSUIT DRILL
20-0103665 20-00812 2001 FLORENCE MATTISON DR 2020-01-23 07:48:40.113 TERRORISTIC THREATENING
20-0103658 1905 OLD MORRILTON HWY 2020-01-23 07:10:07.937 CHECKING VEHICLE
20-0103657 115 LAS COLINAS 2020-01-23 06:49:41.117 ATTEMPT TO CONTACT
20-0103656 3900 DAVE WARD DR 2020-01-23 06:17:15.383 SUPPLEMENT REPORT CALL
20-0103655 3900 DAVE WARD DR 2020-01-23 06:16:46.407 SUPPLEMENT REPORT CALL
20-0103654 20-00811 3900 DAVE WARD DR 2020-01-23 05:08:54.487 STALLED VEHICLE
20-0103653 3199 STACY DR 2020-01-23 04:38:06.710 SUSPICIOUS PERSON
20-0103651 1085 MORNINGSIDE DR 2020-01-23 04:23:42.773 CHECKING VEHICLE
20-0103649 115 LAS COLINAS 2020-01-23 03:30:36.140 SUSPICIOUS PERSON
20-0103647 3225 PEBBLE BEACH DR 2020-01-23 03:06:17.840 REPOSSESSION
20-0103646 1810 PEARCE ST 2020-01-23 02:25:26.327 ATTEMPT TO CONTACT
20-0103645 1610 PRINCE ST 2020-01-23 02:19:15.910 ALARM - HOLD UP or PANIC
20-0103644 1701 DAVE WARD DR 2020-01-23 01:50:00.027 AUDIBLE ALARM
20-0103643 633 S COUNTRY CLUB RD 2020-01-23 00:49:43.350 ALARM
20-0103642 801 ELSINGER BLVD 2020-01-23 00:35:55.707 CHECKING BUILDING
20-0103641 20-00809 2840 DAVE WARD DR 2020-01-23 00:06:41.060 THEFT OF PROPERTY
20-0103640 601 ELSINGER BLVD 2020-01-22 23:33:47.740 SUPPLEMENT REPORT CALL
20-0103639 1985 RICH SMITH LN 2020-01-22 23:33:12.633 FIRE DEPT ASSIST
20-0103637 2499 MUSEUM RD 2020-01-22 22:58:18.270 ACCIDENT - PROPERTY DAMAGE
20-0103636 1608 HARTJE LN 2020-01-22 22:51:02.403 CHECKING PERSON
20-0103633 20-00808 1400 ROBINSON AV 2020-01-22 21:55:30.830 ACCIDENT - PROPERTY DAMAGE
20-0103631 20-00805 950 CRAIN DR 2020-01-22 21:35:50.690 ACCIDENT - PROPERTY DAMAGE
20-0103630 20-00806 1620 MIDDLE RD 2020-01-22 21:13:05.953 LOUD NOISE-MUSIC
20-0103629 1614 HARDY ST 2020-01-22 21:07:34.543 REPOSSESSION
20-0103628 1044 S DONAGHEY AV 2020-01-22 20:59:21.200 ATTEMPT TO CONTACT
20-0103627 1570 NEW OXFORD RD 2020-01-22 20:41:28.500 ATTEMPT TO CONTACT
20-0103626 3101 DAVE WARD DR 2020-01-22 20:37:44.040 ACCIDENT - PROPERTY DAMAGE
20-0103625 1515 APPALACHAIN DR 2020-01-22 20:32:01.480 ATTEMPT TO CONTACT
20-0103624 220 E OAK ST 2020-01-22 20:25:28.313 RECKLESS DRIVER
20-0103623 1900 TYLER ST 2020-01-22 20:25:03.763 ATTEMPT TO CONTACT
20-0103622 20-00803 831 SKYLINE DR 2020-01-22 20:09:43.403 ACCIDENT - PROPERTY DAMAGE
20-0103619 20-00804 1044 S DONAGHEY AV 2020-01-22 19:49:36.163 ACCIDENT - PROPERTY DAMAGE
20-0103618 43 DENDRON ST 2020-01-22 19:45:14.980 ALARM
20-0103617 670 S HOGAN LN 2020-01-22 19:43:17.230 ALARM
20-0103616 20-00802 1250 S AMITY RD 2020-01-22 19:25:47.910 ACCIDENT - PROPERTY DAMAGE
20-0103615 20-00801 900 SOUTH GERMAN LN 2020-01-22 19:12:19.930 ACCIDENT - PROPERTY DAMAGE
20-0103614 3050 OLD MORRILTON HWY 2020-01-22 19:10:35.760 ATTEMPT TO CONTACT
20-0103613 1515 APPALACHAIN DR 2020-01-22 18:42:58.217 MISSING PERSON
20-0103612 1220 E OAK ST 2020-01-22 18:41:34.100 RECKLESS DRIVER
20-0103611 3050 OLD MORRILTON HWY 2020-01-22 18:38:08.013 DOMESTIC DISTURBANCE
20-0103610 3099 SALEM RD 2020-01-22 18:23:51.960 RECKLESS DRIVER
20-0103608 20-00800 2900 HIPPO DR 2020-01-22 17:59:44.243 ACCIDENT - PROPERTY DAMAGE
20-0103607 20-00798 550 SKYLINE DR 2020-01-22 17:48:36.150 ACCIDENT - PROPERTY DAMAGE
20-0103606 20-00799 1155 SKYLINE DR 2020-01-22 17:44:25.643 LOST PROPERTY
20-0103605 20-00797 2125 HARKRIDER ST 2020-01-22 17:34:17.280 ACCIDENT - PROPERTY DAMAGE
20-0103603 950 E 6TH ST 2020-01-22 17:31:45.450 ATTEMPT TO CONTACT
20-0103602 1209 E OAK ST 2020-01-22 17:26:14.813 RECKLESS DRIVER
20-0103601 2105 SPRING VALLEY DR 2020-01-22 17:25:33.123 CIVIL STAND BY
20-0103599 1601 HOGAN LN 2020-01-22 17:07:35.307 CHECK ON THE WELFARE
20-0103598 1110 DOODLE CIR 2020-01-22 17:05:43.703 ALARM
20-0103597 20-00793 500 SOUTH GERMAN LN 2020-01-22 16:57:28.200 MISDEMEANOR WARRANT SERVICE
20-0103596 20-00795 127 I40WB 2020-01-22 16:54:42.740 ACCIDENT - PROPERTY DAMAGE
20-0103594 20-00792 127 I40EB 2020-01-22 16:38:44.080 ACCIDENT - PROPERTY DAMAGE
20-0103593 20-00791 701 1ST AV 2020-01-22 16:16:39.007 CHECK ON THE WELFARE
20-0103592 20-00789 226 HARKRIDER ST 2020-01-22 15:57:54.357 ACCIDENT - PROPERTY DAMAGE
20-0103591 2180 APACHE TRL 2020-01-22 15:57:49.027 CHECK ON THE WELFARE
20-0103589 1637 CLIFTON ST 2020-01-22 15:43:53.120 CHECK ON THE WELFARE
20-0103588 701 1ST AV 2020-01-22 15:40:35.920 CHECK ON THE WELFARE
20-0103587 5410 WHISTLING STRAITS 2020-01-22 15:33:41.917 ALARM
20-0103586 2015 RICH SMITH LN 2020-01-22 15:33:27.810 SUSPICIOUS PERSON
20-0103585 20-00787 2001 COLLEGE AV 2020-01-22 15:29:26.807 ACCIDENT - PROPERTY DAMAGE
20-0103584 20-00788 1313 MCNUTT RD 2020-01-22 15:27:43.647 THEFT OF PROPERTY
20-0103583 129 I40EB 2020-01-22 15:23:16.333 SUPPLEMENT REPORT CALL
20-0103582 1105 PRAIRIE ST 2020-01-22 15:21:42.710 ATTEMPT TO CONTACT
20-0103580 850 OAK ST 2020-01-22 15:06:42.207 SUPPLEMENT REPORT CALL
20-0103579 600 5TH AV 2020-01-22 15:03:20.643 CHECKING VEHICLE
20-0103578 20-00786 1240 E CADRON GAP RD 2020-01-22 15:00:24.223 ATTEMPT TO CONTACT
20-0103577 1525 CLIFTON ST 2020-01-22 14:59:30.770 ATTEMPT TO CONTACT
20-0103575 207 FAIRWAY DR 2020-01-22 14:47:45.177 ATTEMPT TO CONTACT
20-0103574 955 E OAK ST 2020-01-22 14:36:46.607 ALARM - HOLD UP or PANIC
20-0103573 375 MONROE ST 2020-01-22 14:32:05.503 ATTEMPT TO CONTACT
20-0103572 1601 HOGAN LN 2020-01-22 14:28:00.977 VEHICLE TOW
20-0103571 306 FAIRWAY DR 2020-01-22 14:10:57.720 ATTEMPT TO CONTACT
20-0103570 1150 KIRKLAND DR 2020-01-22 13:58:43.083 REPOSSESSION
20-0103568 899 ELSINGER BLVD 2020-01-22 13:44:01.397 TRAFFIC LIGHT PROBLEM
20-0103567 129 I40EB 2020-01-22 13:42:59.980 SUPPLEMENT REPORT CALL
20-0103565 1655 ANTLER CIR 2020-01-22 13:28:22.973 ATTEMPT TO CONTACT
20-0103564 3715 PRINCE ST 2020-01-22 12:59:45.373 SUPPLEMENT REPORT CALL
20-0103561 2200 WASHINGTON AV 2020-01-22 12:37:54.570 SUPPLEMENT REPORT CALL
20-0103560 1719 JENNIFER CIR 2020-01-22 12:33:47.057 SUSPICIOUS PERSON
20-0103558 20-00783 34 AZALEA LP 2020-01-22 12:18:10.470 ATTEMPT TO CONTACT
20-0103557 2205 DAVE WARD DR 2020-01-22 12:10:47.260 STALLED VEHICLE
20-0103553 1711 JENNIFER CIR 2020-01-22 11:56:48.793 SUSPICIOUS PERSON
20-0103552 20-00782 406 S ASH ST 2020-01-22 11:52:29.837 ATTEMPT TO CONTACT
20-0103550 20-00784 355 LEDGELAWN DR 2020-01-22 11:49:46.010 ABANDONED VEHICLE
20-0103549 1901 HOGAN LN 2020-01-22 11:48:54.463 SUSPICIOUS PERSON
20-0103548 2740 DAVE WARD DR 2020-01-22 11:44:13.327 FOUND PROPERTY
20-0103547 1325 OLD MORRILTON HWY 2020-01-22 11:31:11.903 SUSPICIOUS ACTIVITY
20-0103545 20-00781 2201 HARKRIDER ST 2020-01-22 11:22:12.420 FRAUD
20-0103543 1115 COLLEGE AV 2020-01-22 11:13:48.037 ATTEMPT TO CONTACT
20-0103539 1836 BRUCE ST 2020-01-22 10:49:57.420 FRAUD
20-0103538 1105 PRAIRIE ST 2020-01-22 10:40:35.040 SERVING SUBPOENA
20-0103536 375 MONROE ST 2020-01-22 10:20:19.410 SUPPLEMENT REPORT CALL
20-0103535 20-00780 860 S SALEM RD 2020-01-22 10:09:20.217 THEFT OF VEHICLE
20-0103533 20-00779 600 MITCHELL ST 2020-01-22 09:55:35.970 ACCIDENT - PROPERTY DAMAGE
20-0103532 20-00778 3900 DAVE WARD DR 2020-01-22 09:54:30.110 ACCIDENT - PRIVATE PROPERTY
20-0103529 1601 HOGAN LN 2020-01-22 09:36:08.733 CIVIL MATTER
20-0103527 1430 ARDEN LN 2020-01-22 09:28:10.843 ALARM
20-0103525 740 S SALEM RD 2020-01-22 09:20:02.483 SUPPLEMENT REPORT CALL
20-0103522 20-00777 633 S COUNTRY CLUB RD 2020-01-22 09:08:31.240 SUSPICIOUS VEHICLE
20-0103514 20-00776 500 SOUTH GERMAN LN 2020-01-22 08:51:28.353 MISDEMEANOR WARRANT SERVICE
20-0103512 626 4TH AV 2020-01-22 08:40:02.300 ATTEMPT TO CONTACT
20-0103505 707 ROBINS ST 2020-01-22 07:39:49.610 ALARM
20-0103501 2505 E OAK ST 2020-01-22 07:12:54.427 RECKLESS DRIVER
20-0103500 950 E 6TH ST 2020-01-22 06:54:31.987 CHECKING VEHICLE
20-0103499 20-00774 1220 E OAK ST 2020-01-22 06:29:42.357 ACCIDENT - PROPERTY DAMAGE
20-0103498 20-00775 1500 MUSEUM RD 2020-01-22 06:29:41.757 ACCIDENT - PROPERTY DAMAGE
20-0103496 818 E OAK ST 2020-01-22 04:32:13.387 INTOXICATED PERSON
20-0103495 3715 PRINCE ST 2020-01-22 04:24:28.590 CHECKING VEHICLE
20-0103494 3715 PRINCE ST 2020-01-22 04:17:33.417 CHECKING VEHICLE
20-0103492 3150 VAIL AV 2020-01-22 03:19:14.487 ALARM
20-0103491 20-00773 2125 HARKRIDER ST 2020-01-22 02:39:36.777 ALARM
20-0103489 2503 W MARTIN ST 2020-01-22 01:43:40.300 CHECKING VEHICLE
20-0103488 500 ELSINGER BLVD 2020-01-22 01:32:41.310 CHECKING VEHICLE
20-0103487 1835 OTT MEMORIAL BLVD 2020-01-22 01:04:53.597 REPOSSESSION
20-0103483 1105 PRAIRIE ST 2020-01-22 00:04:13.093 SUPPLEMENT REPORT CALL
20-0103482 370 DENISON ST 2020-01-22 00:02:51.790 REPOSSESSION
20-0103480 2535 DONAGHEY AV 2020-01-21 23:01:31.533 SUSPICIOUS PERSON
20-0103479 3000 PEBBLE BEACH DR 2020-01-21 22:52:38.367 BURGLARY
20-0103478 1601 HOGAN LN 2020-01-21 22:44:41.247 DOMESTIC DISTURBANCE
20-0103477 20-00771 1115 PARKWAY ST 2020-01-21 22:26:20.453 DISTURBANCE
20-0103475 401 2ND ST 2020-01-21 22:01:37.140 CHECK ON THE WELFARE
20-0103474 950 SANTA FE TRL 2020-01-21 21:49:40.247 BARKING DOG COMPLAINT
20-0103473 220 S ASH ST 2020-01-21 21:44:27.400 DOMESTIC DISTURBANCE
20-0103472 2200 WASHINGTON AV 2020-01-21 21:38:20.793 LOUD NOISE-MUSIC
20-0103471 1799 EAST GERMAN LN 2020-01-21 21:32:01.497 CHECK ON THE WELFARE
20-0103470 100 GRANDVIEW HEIGHTS DR 2020-01-21 21:16:44.317 CHECKING VEHICLE
20-0103467 955 SOUTH GERMAN LN 2020-01-21 20:59:07.063 DISTURBANCE
20-0103465 1355 EXCHANGE AV 2020-01-21 20:35:18.580 FIRE DEPT ASSIST
20-0103461 3705 MCCONNELL DR 2020-01-21 20:24:38.310 SUSPICIOUS ACTIVITY
20-0103460 375 MONROE ST 2020-01-21 20:21:37.237 SUPPLEMENT REPORT CALL
20-0103457 20-00769 1105 SKYLINE DR 2020-01-21 20:08:10.120 CHECKING VEHICLE
20-0103456 918 WATKINS ST 2020-01-21 20:07:34.160 CHECK ON THE WELFARE
20-0103455 1105 SKYLINE DR 2020-01-21 20:06:10.690 CHECKING VEHICLE
20-0103454 1419 HAMILTON ST 2020-01-21 19:59:05.800 THEFT OF IDENTITY
20-0103451 2045 OLD MORRILTON HWY 2020-01-21 19:35:30.147 HARASSING COMMUNICATIONS
20-0103450 380 HARKRIDER ST 2020-01-21 19:32:10.483 CHECKING VEHICLE
20-0103449 20-00770 2302 COLLEGE AV 2020-01-21 19:25:32.167 RUNAWAY
20-0103444 855 SALEM RD 2020-01-21 18:25:03.117 DISTURBANCE
20-0103440 1630 JOHN BRYANT DR 2020-01-21 18:09:05.063 MISSING PERSON
20-0103439 20-00768 1619 WESTLAKE DR 2020-01-21 18:07:07.383 BREAKING OR ENTERING
20-0103438 541 GROVE ST 2020-01-21 18:04:41.240 DOMESTIC DISTURBANCE
20-0103437 5455 TYLER ST 2020-01-21 18:01:49.767 SUSPICIOUS VEHICLE
20-0103436 20-00767 410 ELSINGER BLVD 2020-01-21 17:54:09.197 ACCIDENT - PROPERTY DAMAGE
20-0103435 2101 TYLER ST 2020-01-21 17:50:36.407 RECKLESS DRIVER
20-0103434 1150 S AMITY RD 2020-01-21 17:44:59.877 STALLED VEHICLE
20-0103433 20-00766 2050 DAVE WARD DR 2020-01-21 17:36:41.780 FOUND PROPERTY
20-0103432 501 DONAGHEY AV 2020-01-21 17:23:16.243 STALLED VEHICLE
20-0103429 2505 E OAK ST 2020-01-21 16:46:41.027 AGENCY ASSIST
20-0103428 450 ROBINS ST 2020-01-21 16:44:19.283 TERRORISTIC THREATENING
20-0103424 3195 BOONE DR 2020-01-21 16:08:57.230 ACCIDENT - PROPERTY DAMAGE
20-0103423 2125 HARKRIDER ST 2020-01-21 16:08:21.370 INDECENT EXPOSURE
20-0103422 20-00764 810 PARKWAY ST 2020-01-21 16:07:04.343 MISDEMEANOR WARRANT SERVICE
20-0103421 20-00763 810 PARKWAY ST 2020-01-21 16:06:29.347 MISDEMEANOR WARRANT SERVICE
20-0103420 20-00762 810 PARKWAY ST 2020-01-21 16:05:55.793 MISDEMEANOR WARRANT SERVICE
20-0103419 301 DONAGHEY AV 2020-01-21 16:04:05.373 SUPPLEMENT REPORT CALL
20-0103416 101 OAK ST 2020-01-21 15:27:19.930 THEFT OF PROPERTY
20-0103414 108 LOWER RIDGE RD 2020-01-21 15:19:44.153 VEHICLE TOW
20-0103413 1601 HOGAN LN 2020-01-21 15:15:00.063 THEFT OF IDENTITY
20-0103412 20-00760 2730 DAVE WARD DR 2020-01-21 15:11:19.180 ACCIDENT - PRIVATE PROPERTY
20-0103410 103 OAK ST 2020-01-21 15:09:56.430 SUPPLEMENT REPORT CALL
20-0103409 20-00759 625 DONAGHEY AV 2020-01-21 15:00:07.890 ACCIDENT - PRIVATE PROPERTY
20-0103408 20-00758 2050 DAVE WARD DR 2020-01-21 14:51:14.190 ACCIDENT - PRIVATE PROPERTY
20-0103407 1930 RICH SMITH LN 2020-01-21 14:46:18.597 SUPPLEMENT REPORT CALL
20-0103406 20-00757 2200 PRINCE ST 2020-01-21 14:38:59.783 ACCIDENT - PROPERTY DAMAGE
20-0103404 1201 STURGIS RD 2020-01-21 14:27:17.310 SUPPLEMENT REPORT CALL
20-0103402 1105 SKYLINE DR 2020-01-21 13:59:06.853 ATTEMPT TO CONTACT
20-0103401 375 MONROE ST 2020-01-21 13:53:54.190 VEHICLE TOW
20-0103399 209 FAIRWAY DR 2020-01-21 13:38:25.183 SUPPLEMENT REPORT CALL
20-0103398 2001 BLANEY HILL RD 2020-01-21 13:36:43.843 ATTEMPT TO CONTACT
20-0103395 495 HOGAN LN 2020-01-21 13:21:52.710 ATTEMPT TO CONTACT
20-0103394 20-00754 2901 TYLER ST 2020-01-21 13:21:47.040 ACCIDENT - PERSONAL INJURY
20-0103391 1985 RICH SMITH LN 2020-01-21 13:17:59.437 SUPPLEMENT REPORT CALL
20-0103386 20-00755 3501 COLLEGE AV 2020-01-21 13:04:11.877 ABUSE
20-0103385 20-00751 12 MEDICAL LN 2020-01-21 12:45:00.757 LOST-STOLEN LICENSE PLATE
20-0103384 20-00750 103 OAK ST 2020-01-21 12:21:56.223 THEFT OF PROPERTY
20-0103383 1155 SKYLINE DR 2020-01-21 12:18:54.867 ATTEMPT TO CONTACT
20-0103382 1000 E SIEBENMORGEN RD 2020-01-21 12:15:42.517 CHECK ON THE WELFARE
20-0103380 1105 PRAIRIE ST 2020-01-21 12:08:43.333 ATTEMPT TO CONTACT
20-0103379 777 S EAST GERMAN LN 2020-01-21 12:08:05.150 SUPPLEMENT REPORT CALL
20-0103378 801 ELSINGER BLVD 2020-01-21 12:01:07.383 ALARM
20-0103376 3540 COPPERWOOD CIR 2020-01-21 11:44:07.900 SUSPICIOUS PERSON
20-0103374 201 SKYLINE DR 2020-01-21 11:33:47.370 STALLED VEHICLE
20-0103372 580 E DAVE WARD DR 2020-01-21 11:29:02.543 VEHICLE TOW
20-0103371 1415 CROSSPOINT RD 2020-01-21 11:22:00.547 ALARM
20-0103370 20-00748 1620 MIDDLE RD 2020-01-21 11:14:42.297 DOMESTIC DISTURBANCE
20-0103369 BLANEY HILL RD 2020-01-21 10:54:07.697 FOUND PROPERTY
20-0103368 545 SKYLINE DR 2020-01-21 10:50:47.140 CHECK ON THE WELFARE
20-0103367 850 OAK ST 2020-01-21 10:49:58.820 SUPPLEMENT REPORT CALL
20-0103365 2895 DAVE WARD DR 2020-01-21 10:48:31.043 FRAUD
20-0103364 475 ROBINS ST 2020-01-21 10:45:48.463 SUPPLEMENT REPORT CALL
20-0103355 20-00746 1105 SKYLINE DR 2020-01-21 10:03:58.737 CHECK ON THE WELFARE
20-0103350 321 WESTERN AV 2020-01-21 09:42:58.323 VEHICLE TOW
20-0103348 20-00743 3501 COLLEGE AV 2020-01-21 09:36:39.723 THEFT OF PROPERTY
20-0103347 20-00742 1325 OLD MORRILTON HWY 2020-01-21 09:35:05.727 THEFT OF PROPERTY
20-0103346 20-00741 1325 OLD MORRILTON HWY 2020-01-21 09:34:33.287 THEFT OF PROPERTY
20-0103345 20-00740 1325 OLD MORRILTON HWY 2020-01-21 09:34:19.427 THEFT OF PROPERTY
20-0103344 1156 MILL ST 2020-01-21 09:32:52.707 SUSPICIOUS PERSON
20-0103342 20-00739 1325 OLD MORRILTON HWY 2020-01-21 09:16:41.333 THEFT OF PROPERTY
20-0103339 20-00738 475 ROBINS ST 2020-01-21 09:01:58.280 CIVIL STAND BY
20-0103335 1105 PRAIRIE ST 2020-01-21 08:42:46.527 SERVING SUBPOENA
20-0103334 20-00737 220 E OAK ST 2020-01-21 08:38:38.280 ACCIDENT - PRIVATE PROPERTY
20-0103333 1105 PRAIRIE ST 2020-01-21 08:34:39.777 SERVING SUBPOENA
20-0103330 3610 IRBY DR 2020-01-21 08:09:42.900 ALARM
20-0103329 475 ROBINS ST 2020-01-21 08:04:31.387 CIVIL MATTER
20-0103328 1805 BRUCE ST 2020-01-21 08:03:42.130 ACCIDENT - PROPERTY DAMAGE
20-0103325 3540 COPPERWOOD CIR 2020-01-21 07:59:17.320 SUSPICIOUS PERSON
20-0103321 20-00736 1130 E SIEBENMORGEN RD 2020-01-21 07:38:37.350 ACCIDENT - PROPERTY DAMAGE
20-0103320 475 ROBINS ST 2020-01-21 07:37:05.997 CIVIL STAND BY
20-0103314 1701 DAVE WARD DR 2020-01-21 06:45:38.787 ALARM
20-0103313 44 BRIERWOOD CIR 2020-01-21 06:43:04.610 ALARM
20-0103312 4298 SALEM RD 2020-01-21 06:38:45.997 STALLED VEHICLE
20-0103311 2230 DILLARD DR 2020-01-21 06:35:42.600 REPOSSESSION
20-0103310 1955 KEATHLEY DR 2020-01-21 06:09:43.190 CHECK ON THE WELFARE
20-0103309 20-00735 777 S EAST GERMAN LN 2020-01-21 05:19:47.243 ROBBERY
20-0103308 1700 WINTERBROOK DR 2020-01-21 05:07:15.720 SUSPICIOUS PERSON
20-0103307 20-00734 1201 STURGIS RD 2020-01-21 04:45:07.027 BREAKING OR ENTERING
20-0103306 500 ELSINGER BLVD 2020-01-21 04:38:48.863 CHECKING BUILDING
20-0103302 601 ELSINGER BLVD 2020-01-21 02:43:23.263 SUPPLEMENT REPORT CALL
20-0103301 20-00733 606 4TH AV 2020-01-21 02:24:01.853 FOUND PROPERTY
20-0103300 3705 MCCONNELL DR 2020-01-21 02:18:07.430 OPEN DOOR/WINDOW/FENCE
20-0103299 606 4TH AV 2020-01-21 02:00:36.330 DOMESTIC DISTURBANCE
20-0103298 1520 E DAVE WARD DR 2020-01-21 01:58:01.150 CITIZEN ASSIST
20-0103297 3670 JEANNA DR 2020-01-21 01:45:15.813 SHOTS FIRED
20-0103296 20 KINLEY DR 2020-01-21 01:43:35.047 CHECKING VEHICLE
20-0103295 705 SALEM RD 2020-01-21 01:29:10.800 CHECKING VEHICLE
20-0103293 3060 PEBBLE BEACH DR 2020-01-21 01:03:25.337 LOUD NOISE-MUSIC
20-0103292 2100 CHARLIE DAYER DR 2020-01-21 00:40:59.760 CHECKING VEHICLE
20-0103287 1701 HAIRSTON AV 2020-01-21 00:13:07.617 LOUD NOISE-MUSIC
20-0103286 3715 PRINCE ST 2020-01-20 23:43:43.500 CHECKING BUILDING
20-0103285 1905 OLD MORRILTON HWY 2020-01-20 23:38:06.147 CHECKING VEHICLE
20-0103284 100 GRANDVIEW HEIGHTS DR 2020-01-20 23:20:16.800 CHECKING VEHICLE
20-0103277 20-00732 500 SOUTH GERMAN LN 2020-01-20 22:21:21.950 MISDEMEANOR WARRANT SERVICE
20-0103276 1709 WASHINGTON AV 2020-01-20 22:08:20.180 DOMESTIC DISTURBANCE
20-0103274 1701 HAIRSTON AV 2020-01-20 21:43:54.200 LOUD NOISE-MUSIC
20-0103273 20-00729 375 MONROE ST 2020-01-20 21:38:15.457 CRIMINAL MISCHIEF
20-0103270 2619 W MARTIN ST 2020-01-20 21:09:32.950 SUPPLEMENT REPORT CALL
20-0103269 2051 HARKRIDER ST 2020-01-20 21:08:10.867 RECKLESS DRIVER
20-0103267 1620 MIDDLE RD 2020-01-20 20:43:49.417 PARKING VIOLATION
20-0103266 2980 OLD MORRILTON HWY 2020-01-20 20:34:04.547 SHOTS FIRED
20-0103265 20-00728 955 E OAK ST 2020-01-20 20:30:51.637 ACCIDENT - PRIVATE PROPERTY
20-0103262 1105 PRAIRIE ST 2020-01-20 20:22:32.057 ATTEMPT TO CONTACT
20-0103258 20-00727 500 SOUTH GERMAN LN 2020-01-20 19:37:18.537 MISDEMEANOR WARRANT SERVICE
20-0103255 2915 DAVE WARD DR 2020-01-20 18:58:54.603 ALARM
20-0103254 20-00725 2500 COLLEGE AV 2020-01-20 18:47:43.357 ACCIDENT - PROPERTY DAMAGE
20-0103253 655 ELSINGER BLVD 2020-01-20 18:42:19.393 LOG VEHICLE
20-0103252 311 OAK ST 2020-01-20 18:22:25.530 DISTURBANCE
20-0103251 20-00724 160 FARRIS RD 2020-01-20 18:19:58.430 ACCIDENT - PROPERTY DAMAGE
20-0103249 2820 COLLEGE AV 2020-01-20 18:17:56.680 CHECK ON THE WELFARE
20-0103247 20-00723 300 FARRIS RD 2020-01-20 18:00:58.797 ACCIDENT - PROPERTY DAMAGE
20-0103246 601 ELSINGER BLVD 2020-01-20 17:58:42.713 SUPPLEMENT REPORT CALL
20-0103245 300 S DONAGHEY AV 2020-01-20 17:57:14.730 TERRORISTIC THREATENING
20-0103244 324 ASH ST 2020-01-20 17:46:30.060 CHECK ON THE WELFARE
20-0103243 850 OAK ST 2020-01-20 17:45:08.563 SUPPLEMENT REPORT CALL
20-0103242 20-00722 815 E OAK ST 2020-01-20 17:38:18.843 TRESPASSING
20-0103241 129 I40WB 2020-01-20 17:22:57.367 STALLED VEHICLE
20-0103239 20-00721 1125 GUM ST 2020-01-20 17:03:54.333 CIVIL MATTER
20-0103238 20-00719 850 OAK ST 2020-01-20 16:41:53.430 THEFT OF PROPERTY
20-0103237 20-00718 601 ELSINGER BLVD 2020-01-20 16:29:34.133 THEFT OF PROPERTY
20-0103236 20-00717 2600 DAVE WARD DR 2020-01-20 16:17:34.910 ACCIDENT - PROPERTY DAMAGE
20-0103235 1155 SKYLINE DR 2020-01-20 16:07:47.923 ATTEMPT TO CONTACT
20-0103233 625 SALEM RD 2020-01-20 15:59:18.660 THEFT OF PROPERTY
20-0103232 1220 E OAK ST 2020-01-20 15:58:39.817 SUSPICIOUS VEHICLE
20-0103231 2500 KRYSTAL KREEK DR 2020-01-20 15:56:04.447 TRESPASSING
20-0103230 2210 WILMINGTON DR 2020-01-20 15:55:40.517 REPOSSESSION
20-0103228 870 S SALEM RD 2020-01-20 15:46:24.603 ATTEMPT TO CONTACT
20-0103227 1601 HOGAN LN 2020-01-20 15:43:26.487 DOMESTIC DISTURBANCE
20-0103226 2001 SALEM RD 2020-01-20 15:36:02.737 STALLED VEHICLE
20-0103225 20-00714 3280 TURTLE HILL CV 2020-01-20 15:34:26.827 FOUND PROPERTY
20-0103224 20-00715 2510 PRINCE ST 2020-01-20 15:32:00.843 HARASSMENT
20-0103223 4106 MALLARD LN 2020-01-20 15:30:07.193 ATTEMPT TO CONTACT
20-0103220 1209 E OAK ST 2020-01-20 15:16:47.383 RECKLESS DRIVER
20-0103219 1405 S DONAGHEY AV 2020-01-20 15:13:24.607 AGENCY ASSIST
20-0103218 325 S MITCHELL ST 2020-01-20 15:11:16.097 ATTEMPT TO CONTACT
20-0103216 1155 SKYLINE DR 2020-01-20 15:04:16.270 CITIZEN ASSIST
20-0103215 20-00712 950 CRAIN DR 2020-01-20 15:03:05.237 ACCIDENT - PROPERTY DAMAGE
20-0103213 215 SKYLINE DR 2020-01-20 14:42:41.080 LOST PROPERTY
20-0103212 20-00711 1930 RICH SMITH LN 2020-01-20 14:29:05.330 BURGLARY
20-0103209 1250 S AMITY RD 2020-01-20 14:16:01.107 FRAUD
20-0103205 801 ELSINGER BLVD 2020-01-20 13:37:23.623 CITIZEN ASSIST
20-0103203 20-00707 815 E OAK ST 2020-01-20 12:55:47.390 MISDEMEANOR WARRANT SERVICE
20-0103201 20-00708 113 CONWAY BLVD 2020-01-20 12:31:45.737 BREAKING OR ENTERING
20-0103200 215 FARRIS RD 2020-01-20 12:26:39.020 VEHICLE TOW
20-0103199 601 S COUNTRY CLUB RD 2020-01-20 12:24:25.647 RECKLESS DRIVER
20-0103198 20-00705 2320 WASHINGTON AV 2020-01-20 12:18:54.990 FOUND PROPERTY
20-0103195 20-00706 2515 W MARTIN ST 2020-01-20 12:04:46.300 THEFT OF PROPERTY
20-0103194 1405 KODIE ST 2020-01-20 12:02:28.567 ALARM
20-0103192 20-00704 1052 HARRISON ST 2020-01-20 11:37:23.353 ACCIDENT - PRIVATE PROPERTY
20-0103191 20-00702 1828 HOGAN LN 2020-01-20 11:31:59.537 THEFT OF PROPERTY
20-0103190 220 E OAK ST 2020-01-20 11:24:49.420 VEHICLE TOW
20-0103187 20-00701 2603 DAVE WARD DR 2020-01-20 11:03:06.133 THEFT OF PROPERTY
20-0103185 20-00703 1155 SKYLINE DR 2020-01-20 10:08:55.650 THEFT OF PROPERTY
20-0103184 920 WALNUT ST 2020-01-20 10:08:12.723 ALARM
20-0103183 501 ELSINGER BLVD 2020-01-20 09:38:19.103 SHOPLIFTING
20-0103182 1617 ROBINSON AV 2020-01-20 09:36:25.623 CIVIL MATTER
20-0103181 2255 STURGIS RD 2020-01-20 09:35:39.647 BATTERY REPORT
20-0103179 20-00700 1155 SKYLINE DR 2020-01-20 09:22:34.373 SHOPLIFTING
20-0103178 201 SKYLINE DR 2020-01-20 09:09:40.993 ALARM
20-0103177 20-00699 1570 S SALEM RD 2020-01-20 09:04:28.793 THEFT OF PROPERTY
20-0103176 3115 COLLEGE AV 2020-01-20 08:59:37.397 SERVING SUBPOENA
20-0103175 626 4TH AV 2020-01-20 08:34:25.540 MISDEMEANOR WARRANT SERVICE
20-0103174 1200 DAVE WARD DR 2020-01-20 08:30:16.367 STALLED VEHICLE
20-0103173 1375 THOMAS G WILSON DR 2020-01-20 08:16:21.277 SUPPLEMENT REPORT CALL
20-0103172 20-00698 2455 DONAGHEY AV 2020-01-20 08:13:09.763 FIRE DEPT ASSIST
20-0103165 475 ROBINS ST 2020-01-20 07:37:10.310 ATTEMPT TO CONTACT
20-0103164 235 FARRIS RD 2020-01-20 07:36:56.833 ALARM
20-0103163 20-00697 580 E DAVE WARD DR 2020-01-20 07:16:50.500 ACCIDENT - PRIVATE PROPERTY
20-0103162 2300 PRINCE ST 2020-01-20 06:30:49.350 DOMESTIC DISTURBANCE
20-0103161 1159 SPENCER ST 2020-01-20 05:50:57.820 SUPPLEMENT REPORT CALL
20-0103159 506 OAK ST 2020-01-20 05:23:29.357 ALARM
20-0103158 1122 VAN RONKLE ST 2020-01-20 04:51:34.570 CHECKING PERSON
20-0103155 20-00696 1123 MILL ST 2020-01-20 03:13:48.973 BURGLARY
20-0103154 2360 SANDERS ST 2020-01-20 03:04:40.553 INTOXICATED PERSON
20-0103153 20-00695 500 SOUTH GERMAN LN 2020-01-20 02:36:56.290 MISDEMEANOR WARRANT SERVICE
20-0103152 601 DAVE WARD DR 2020-01-20 02:36:38.730 FIRE DEPT ASSIST
20-0103150 530 S DONAGHEY AV 2020-01-20 02:33:44.557 LOUD NOISE-MUSIC
20-0103148 2360 SANDERS ST 2020-01-20 02:01:49.193 INTOXICATED PERSON
20-0103147 1010 MAIN ST 2020-01-20 01:56:08.017 ATTEMPT TO CONTACT
20-0103146 3145 PEBBLE BEACH DR 2020-01-20 01:46:42.937 LOUD NOISE-MUSIC
20-0103143 100 CLUB LN 2020-01-20 01:26:30.130 CHECKING VEHICLE
20-0103142 375 MONROE ST 2020-01-20 01:13:53.690 CHECKING BUILDING
20-0103139 375 MONROE ST 2020-01-20 00:57:02.597 LOUD NOISE-MUSIC
20-0103138 375 MONROE ST 2020-01-20 00:24:30.233 LOUD NOISE-MUSIC
20-0103137 2730 DAVE WARD DR 2020-01-20 00:10:32.820 LOUD NOISE-MUSIC
20-0103134 207 WILLOW ST 2020-01-19 23:52:22.533 911 HANGUP CALL
20-0103133 1400 INGRAM ST 2020-01-19 23:49:03.773 CHECKING VEHICLE
20-0103132 3100 IRBY DR 2020-01-19 23:32:31.567 LOUD NOISE-MUSIC
20-0103131 1835 LUCILLE ST 2020-01-19 22:51:42.600 CITIZEN ASSIST
20-0103129 1085 S DONAGHEY AV 2020-01-19 22:32:33.677 LOUD NOISE-MUSIC
20-0103128 207 WILLOW ST 2020-01-19 22:19:06.320 DOMESTIC DISTURBANCE
20-0103126 20-00694 2225 ROSEMARY DR 2020-01-19 21:57:57.340 CHECK ON THE WELFARE
20-0103124 350 SALEM RD 2020-01-19 21:25:06.853 ALARM
20-0103122 4106 MALLARD LN 2020-01-19 20:57:20.677 DOMESTIC DISTURBANCE
20-0103121 1302 GUERNSEY DR 2020-01-19 20:51:18.993 CIVIL STAND BY
20-0103120 20-00693 530 S DONAGHEY AV 2020-01-19 20:44:03.107 CRIMINAL MISCHIEF
20-0103119 1601 HOGAN LN 2020-01-19 20:41:26.197 DOMESTIC DISTURBANCE
20-0103118 2310 ROBINSON AV 2020-01-19 20:38:55.887 ATTEMPT TO CONTACT
20-0103117 1200 THOMAS G WILSON DR 2020-01-19 20:22:32.790 ALARM
20-0103116 1501 HOGAN LN 2020-01-19 20:20:24.043 RECKLESS DRIVER
20-0103115 452 6TH ST 2020-01-19 20:17:22.850 SHOTS FIRED
20-0103114 20-00692 545 E DAVE WARD DR 2020-01-19 20:10:01.433 ACCIDENT - HIT AND RUN
20-0103113 20-00691 1 LOWER RIDGE RD 2020-01-19 20:00:18.080 ACCIDENT - PROPERTY DAMAGE
20-0103112 2020-01-19 19:19:19.360 ATTEMPT TO CONTACT
20-0103111 501 ELSINGER BLVD 2020-01-19 19:15:52.767 ATTEMPT TO CONTACT
20-0103110 2270 MEADOWLAKE RD 2020-01-19 19:13:40.153 SUPPLEMENT REPORT CALL
20-0103109 325 S MITCHELL ST 2020-01-19 19:09:47.713 SUSPICIOUS ACTIVITY
20-0103108 225 PICKWICKET DR 2020-01-19 18:52:14.857 ARMED SUBJECT
20-0103106 20-00689 4 WOODLAWN DR 2020-01-19 18:37:47.647 DOMESTIC DISTURBANCE
20-0103102 2310 ROBINSON AV 2020-01-19 18:16:40.220 ATTEMPT TO CONTACT
20-0103101 2505 PRINCE ST 2020-01-19 18:06:49.590 STALLED VEHICLE
20-0103100 20-00686 461 HARKRIDER ST 2020-01-19 18:02:47.570 ACCIDENT - PERSONAL INJURY
20-0103099 20-00687 15 TUCKER CREEK RD 2020-01-19 17:49:59.313 FOUND PROPERTY
20-0103098 20-00685 2270 MEADOWLAKE RD 2020-01-19 17:40:04.383 LOST PROPERTY
20-0103096 220 CHAPEL CREEK DR 2020-01-19 16:57:07.597 BURGLARY
20-0103092 207 FAIRWAY DR 2020-01-19 16:46:08.853 ATTEMPT TO CONTACT
20-0103091 100 SKYLINE DR 2020-01-19 16:38:31.663 INTOXICATED DRIVER
20-0103090 955 SOUTH GERMAN LN 2020-01-19 16:22:49.547 SUPPLEMENT REPORT CALL
20-0103089 20-00684 6195 DAVE WARD DR 2020-01-19 15:51:45.503 ACCIDENT - PERSONAL INJURY
20-0103088 710 3RD AV 2020-01-19 15:51:27.593 CIVIL MATTER
20-0103087 20-00683 505 DAVE WARD DR 2020-01-19 15:45:08.067 FRAUD
20-0103084 20-00682 955 SOUTH GERMAN LN 2020-01-19 15:31:58.570 HARASSMENT
20-0103083 1601 DAVIS ST 2020-01-19 15:30:26.370 DOMESTIC DISTURBANCE
20-0103082 375 MONROE ST 2020-01-19 15:14:58.873 CHECKING BUILDING
20-0103081 20-00681 2 RIDGEWOOD DR 2020-01-19 15:11:55.607 NO CONTACT ORDER VIOLATION
20-0103080 24 NORTHWOOD DR 2020-01-19 14:45:17.590 ALARM - HOLD UP or PANIC
20-0103078 30 LOWER RIDGE RD 2020-01-19 13:45:32.210 TRAFFIC PROBLEM-CONTROL
20-0103077 2240 DAVE WARD DR 2020-01-19 13:45:00.317 ATTEMPT TO CONTACT
20-0103076 818 E OAK ST 2020-01-19 13:20:40.810 CIVIL STAND BY
20-0103075 415 S DAVIS ST 2020-01-19 12:46:02.097 SUPPLEMENT REPORT CALL
20-0103074 20-00680 207 FAIRWAY DR 2020-01-19 12:36:49.103 CHECKING PERSON
20-0103073 475 ROBINS ST 2020-01-19 12:33:46.630 CRIMINAL MISCHIEF
20-0103070 2170 HARKRIDER ST 2020-01-19 12:17:04.973 ALARM
20-0103069 241 TIMBERPEG CIR 2020-01-19 11:57:17.640 CHECKING PERSON
20-0103068 20-00679 740 S SALEM RD 2020-01-19 11:34:41.040 PROPERTY DAMAGE
20-0103067 2400 MARKET PLAZA DR 2020-01-19 11:34:05.387 SERVING SUBPOENA
20-0103066 600 ELSINGER BLVD 2020-01-19 11:21:13.970 SUPPLEMENT REPORT CALL
20-0103065 20-00678 3034 DONNELL RIDGE RD 2020-01-19 11:06:11.627 TERRORISTIC THREATENING
20-0103064 501 ELSINGER BLVD 2020-01-19 11:01:22.583 THEFT OF PROPERTY
20-0103063 20-00675 501 ELSINGER BLVD 2020-01-19 11:01:21.723 THEFT OF PROPERTY
20-0103062 20-00677 205 E OAK ST 2020-01-19 10:59:25.340 ACCIDENT - PRIVATE PROPERTY
20-0103059 2425 SANDERS ST 2020-01-19 10:33:16.327 INTOXICATED DRIVER
20-0103058 20-00672 209 FAIRWAY DR 2020-01-19 10:30:14.897 BREAKING OR ENTERING
20-0103057 799 CENTRAL LANDING BLVD 2020-01-19 10:27:14.720 CHECKING PERSON
20-0103056 20-00673 415 S DAVIS ST 2020-01-19 10:25:13.593 RUNAWAY
20-0103055 375 E OAK ST 2020-01-19 10:24:58.007 CHECKING PERSON
20-0103054 2799 SALEM RD 2020-01-19 10:17:48.860 RECKLESS DRIVER
20-0103052 2650 DONAGHEY AV 2020-01-19 10:02:50.647 ALARM
20-0103051 20-00671 800 CENTER ST 2020-01-19 09:56:00.330 ACCIDENT - PERSONAL INJURY
20-0103050 1955 KEATHLEY DR 2020-01-19 09:54:14.920 CHECKING VEHICLE
20-0103049 1425 S SALEM RD 2020-01-19 09:54:10.593 ALARM
20-0103048 20-00674 740 S SALEM RD 2020-01-19 09:48:10.460 DOMESTIC DISTURBANCE
20-0103047 1775 OLD MORRILTON HWY 2020-01-19 09:43:48.657 911 HANGUP CALL
20-0103046 324 HELEN ST 2020-01-19 09:23:27.733 ATTEMPT TO CONTACT
20-0103045 123 SHAMROCK DR 2020-01-19 09:14:57.613 ALARM
20-0103044 2 SHADY VALLEY DR 2020-01-19 08:45:49.990 ALARM
20-0103043 20-00670 1 AZALEA LN 2020-01-19 08:41:57.957 FOUND PROPERTY
20-0103042 1301 ELM ST 2020-01-19 08:35:23.620 TRAFFIC PROBLEM-CONTROL
20-0103041 20-00668 1025 APPLEWOOD DR 2020-01-19 08:04:27.137 SUSPICIOUS VEHICLE
20-0103038 20-00669 1555 EXCHANGE AV 2020-01-19 07:57:30.383 MISDEMEANOR WARRANT SERVICE
20-0103037 1175 MORNINGSIDE DR 2020-01-19 07:35:07.930 ABUSE
20-0103036 985 RUNWAY DR 2020-01-19 07:24:36.263 ALARM
20-0103035 818 E OAK ST 2020-01-19 07:12:21.173 HARASSING COMMUNICATIONS
20-0103034 20-00667 500 ELSINGER BLVD 2020-01-19 07:02:55.970 CRIMINAL MISCHIEF
20-0103033 818 E OAK ST 2020-01-19 05:17:38.060 ATTEMPT TO CONTACT
20-0103032 3900 DAVE WARD DR 2020-01-19 05:00:14.443 ATTEMPT TO CONTACT
20-0103031 406 S ASH ST 2020-01-19 03:50:07.740 ATTEMPT TO CONTACT
20-0103030 3900 DAVE WARD DR 2020-01-19 03:49:25.857 PARKING VIOLATION
20-0103027 1931 MARTIN ST 2020-01-19 03:01:05.273 LOUD NOISE-MUSIC
20-0103026 407 HEREFORD ST 2020-01-19 02:50:42.380 DOMESTIC DISTURBANCE
20-0103024 3900 DAVE WARD DR 2020-01-19 02:03:22.553 STALLED VEHICLE
20-0103023 20-00665 1010 E OAK ST 2020-01-19 01:50:43.630 ACCIDENT - HIT AND RUN
20-0103022 20-00666 1000 MORNINGSIDE DR 2020-01-19 01:35:36.430 CHECKING VEHICLE
20-0103020 1611 E OAK ST 2020-01-19 01:16:07.230 DISTURBANCE
20-0103018 711 2ND AV 2020-01-19 01:06:11.610 ATTEMPT TO CONTACT
20-0103017 900 EXCHANGE AV 2020-01-19 01:04:26.770 CHECK ON THE WELFARE
20-0103014 2935 PEBBLE BEACH DR 2020-01-19 00:13:19.613 CHECK ON THE WELFARE
20-0103013 1750 SOUTHERN HILLS DR 2020-01-18 23:57:04.860 CHECK ON THE WELFARE
20-0103012 766 HARKRIDER ST 2020-01-18 23:50:58.697 MISDEMEANOR WARRANT SERVICE
20-0103011 1925 PENNY ST 2020-01-18 23:50:51.303 DOMESTIC DISTURBANCE
20-0103010 2 BIRCHWOOD DR 2020-01-18 23:44:06.707 RECOVERED PROPERTY
20-0103009 2013 LEE AV 2020-01-18 23:42:34.547 DISTURBANCE
20-0103008 1601 HOGAN LN 2020-01-18 23:39:56.763 DOMESTIC DISTURBANCE
20-0103007 3100 MILLER'S VIEW 2020-01-18 23:34:08.190 BARKING DOG COMPLAINT
20-0103006 4540 PRINCE ST 2020-01-18 23:06:03.093 FIRE DEPT ASSIST
20-0103004 650 ROBINS ST 2020-01-18 22:50:09.773 911 HANGUP CALL
20-0103003 20-00664 1529 DAVIS ST 2020-01-18 22:48:06.140 CRIMINAL MISCHIEF
20-0103002 1920 PENNY ST 2020-01-18 22:34:22.527 ATTEMPT TO CONTACT
20-0103000 855 SALEM RD 2020-01-18 22:11:54.837 SUSPICIOUS ACTIVITY
20-0102999 20-00663 3400 IRBY DR 2020-01-18 21:56:17.520 ACCIDENT - PERSONAL INJURY
20-0102998 705 SALEM RD 2020-01-18 21:54:29.163 INTOXICATED DRIVER
20-0102994 20-00662 405 OAK ST 2020-01-18 21:27:33.377 CRIMINAL MISCHIEF
20-0102993 605 1ST AV 2020-01-18 21:20:47.270 SUSPICIOUS VEHICLE
20-0102992 207 FAIRWAY DR 2020-01-18 21:16:52.203 SUPPLEMENT REPORT CALL
20-0102991 310 MILDRED ST 2020-01-18 21:16:32.970 SUSPICIOUS ACTIVITY
20-0102989 20-00661 1155 SKYLINE DR 2020-01-18 21:10:34.537 SHOPLIFTING
20-0102985 1920 PENNY ST 2020-01-18 20:54:45.120 CIVIL MATTER
20-0102982 550 S AMITY RD 2020-01-18 20:35:50.300 SUSPICIOUS PERSON
20-0102981 501 ELSINGER BLVD 2020-01-18 20:21:52.700 RECKLESS DRIVER
20-0102979 302 FAIRWAY DR 2020-01-18 20:10:29.867 SUPPLEMENT REPORT CALL
20-0102977 CADRON GAP RD 2020-01-18 19:02:37.450 ATTEMPT TO CONTACT
20-0102976 501 ELSINGER BLVD 2020-01-18 19:00:08.983 RECKLESS DRIVER
20-0102975 501 ELSINGER BLVD 2020-01-18 18:59:58.497 RECKLESS DRIVER
20-0102974 825 OAK ST 2020-01-18 18:54:51.060 DISTURBANCE
20-0102973 401 2ND ST 2020-01-18 18:52:44.353 CHECK ON THE WELFARE
20-0102970 2100 DAVE WARD DR 2020-01-18 18:29:39.720 INTOXICATED DRIVER
20-0102969 20-00660 220 E OAK ST 2020-01-18 18:26:50.073 RECOVERED VEHICLE
20-0102968 950 E 6TH ST 2020-01-18 18:24:29.800 CHECKING PERSON
20-0102967 20-00659 360 S DAVIS ST 2020-01-18 18:15:26.643 SHOTS FIRED
20-0102966 2605 ORCHARD PARK DR 2020-01-18 18:11:24.850 ATTEMPT TO CONTACT
20-0102965 985 RUNWAY DR 2020-01-18 18:09:51.290 ALARM
20-0102964 2355 WILMINGTON DR 2020-01-18 18:02:35.523 HARASSING COMMUNICATIONS
20-0102963 2310 ROBINSON AV 2020-01-18 17:57:44.053 FOUND PROPERTY
20-0102961 301 PICKWICKET DR 2020-01-18 17:33:04.713 SHOTS FIRED
20-0102960 20-00658 310 FAIRWAY DR 2020-01-18 17:33:02.637 SHOTS FIRED
20-0102959 100 BRUCE ST 2020-01-18 17:17:08.463 RECKLESS DRIVER
20-0102958 1058 FRONT ST 2020-01-18 16:52:48.207 TRESPASSING
20-0102957 20-00657 3010 PEBBLE BEACH DR 2020-01-18 16:39:46.677 PROPERTY DAMAGE
20-0102954 3715 PRINCE ST 2020-01-18 15:58:13.643 SUSPICIOUS ACTIVITY
20-0102953 2255 STURGIS RD 2020-01-18 15:55:29.043 AGENCY ASSIST
20-0102948 1201 EXCHANGE AV 2020-01-18 15:30:05.807 RECOVERED VEHICLE
20-0102946 207 WILLOW ST 2020-01-18 15:19:42.517 CIVIL MATTER
20-0102943 1284 S AMITY RD 2020-01-18 15:08:16.660 ATTEMPT TO CONTACT
20-0102942 108 LOWER RIDGE RD 2020-01-18 15:05:23.413 ALARM
20-0102941 2415 WASHINGTON AV 2020-01-18 15:04:07.937 911 HANGUP CALL
20-0102940 2108 BROADVIEW AV 2020-01-18 15:01:54.497 CIVIL STAND BY
20-0102938 3900 DAVE WARD DR 2020-01-18 14:44:38.593 TRAFFIC PROBLEM-CONTROL
20-0102937 20-00652 799 CENTRAL LANDING BLVD 2020-01-18 14:43:52.737 ACCIDENT - PROPERTY DAMAGE
20-0102935 20-00653 126 I40WB 2020-01-18 14:39:18.143 ACCIDENT - PROPERTY DAMAGE
20-0102934 20-00651 1284 S AMITY RD 2020-01-18 14:36:07.830 ACCIDENT - PRIVATE PROPERTY
20-0102933 20-00654 1725 MILESTONE DR 2020-01-18 14:25:39.927 DOMESTIC DISTURBANCE
20-0102932 20-00649 801 ELSINGER BLVD 2020-01-18 13:35:16.867 SUSPICIOUS PERSON
20-0102931 1720 CENTENNIAL CLUB DR 2020-01-18 13:34:27.520 ALARM
20-0102930 11 BRADLEY CIR 2020-01-18 13:31:46.833 HARASSMENT
20-0102929 6195 DAVE WARD DR 2020-01-18 13:23:39.670 ATTEMPT TO CONTACT
20-0102928 292 SOUTHWICK CV 2020-01-18 13:20:03.720 ATTEMPT TO CONTACT
20-0102926 20-00648 1895 E OAK ST 2020-01-18 13:03:38.933 ACCIDENT - PROPERTY DAMAGE
20-0102925 3725 COLLEGE AV 2020-01-18 12:44:01.627 CIVIL MATTER
20-0102924 1019 MITCHELL ST 2020-01-18 12:37:56.150 ALARM
20-0102922 20-00646 1012 E OAK ST 2020-01-18 12:19:24.337 DISTURBANCE
20-0102920 20-00647 7 WASSON RD 2020-01-18 11:57:45.733 BREAKING OR ENTERING
20-0102919 20-00643 1171 E OAK ST 2020-01-18 11:43:01.140 ACCIDENT - PROPERTY DAMAGE
20-0102918 20-00645 2960 BILLY JACK DR 2020-01-18 11:39:47.673 DOMESTIC DISTURBANCE
20-0102917 1310 E DAVE WARD DR 2020-01-18 11:31:39.390 ALARM
20-0102916 1901 E OAK ST 2020-01-18 11:21:59.063 ACCIDENT - HIT AND RUN
20-0102915 3715 PRINCE ST 2020-01-18 11:06:28.933 SUPPLEMENT REPORT CALL
20-0102914 20-00641 707 ROBINS ST 2020-01-18 11:00:08.143 CHECKING VEHICLE
20-0102913 20-00642 3034 DAVE WARD DR 2020-01-18 10:44:49.997 DOMESTIC DISTURBANCE
20-0102910 1100 S AMITY RD 2020-01-18 09:54:37.503 ALARM
20-0102909 1912 HOGAN LN 2020-01-18 09:53:03.423 LOUD NOISE-MUSIC
20-0102908 3725 COLLEGE AV 2020-01-18 09:51:06.043 CIVIL MATTER
20-0102906 1930 RICH SMITH LN 2020-01-18 09:40:02.880 CHECKING VEHICLE
20-0102902 2210 ROBINSON AV 2020-01-18 09:22:09.610 SUPPLEMENT REPORT CALL
20-0102899 3725 COLLEGE AV 2020-01-18 08:57:11.747 CIVIL MATTER
20-0102896 310 FAIRWAY DR 2020-01-18 08:14:31.593 SHOTS FIRED
20-0102895 20-00640 306 FAIRWAY DR 2020-01-18 08:14:29.180 SHOTS FIRED
20-0102894 1150 MUSEUM RD 2020-01-18 07:51:16.687 TRESPASSING
20-0102889 1425 E OAK ST 2020-01-18 07:22:58.293 CHECKING VEHICLE
20-0102888 1555 EXCHANGE AV 2020-01-18 07:10:47.257 ATTEMPT TO CONTACT
20-0102887 1795 JASMINE 2020-01-18 05:59:46.610 CHECKING VEHICLE
20-0102886 1624 OLD MILITARY RD 2020-01-18 05:48:44.170 CHECKING VEHICLE
20-0102885 2399 STOUT ST 2020-01-18 05:06:05.317 OPEN DOOR/WINDOW/FENCE
20-0102882 5150 PARK PLACE DR 2020-01-18 04:14:02.680 AGENCY ASSIST
20-0102881 1155 SKYLINE DR 2020-01-18 03:40:26.813 BATTERY REPORT
20-0102880 611 SIEBENMORGEN RD 2020-01-18 03:26:46.020 LOUD NOISE-MUSIC
20-0102879 4302 MALLARD LN 2020-01-18 03:11:56.247 AGENCY ASSIST
20-0102878 2415 WASHINGTON AV 2020-01-18 03:07:02.610 DOMESTIC DISTURBANCE
20-0102877 2280 SANDERS ST 2020-01-18 03:04:54.373 ALARM
20-0102876 506 OAK ST 2020-01-18 02:58:49.400 ALARM
20-0102875 2915 DAVE WARD DR 2020-01-18 02:49:35.977 ALARM
20-0102874 706 S DAVIS ST 2020-01-18 02:35:22.477 CHECKING VEHICLE
20-0102873 5200 JOHN W. ALLISON RD 2020-01-18 02:29:15.423 TRESPASSING
20-0102872 855 S SALEM RD 2020-01-18 02:16:31.200 SUSPICIOUS ACTIVITY
20-0102870 20-00637 500 SALEM RD 2020-01-18 02:08:29.487 ACCIDENT - PROPERTY DAMAGE
20-0102869 20-00636 301 HELEN ST 2020-01-18 02:04:46.253 CRIMINAL MISCHIEF
20-0102868 20-00638 1950 ERBACH ST 2020-01-18 02:03:39.207 CHECKING PERSON
20-0102867 1940 HENRY ST 2020-01-18 01:59:30.080 CHECKING VEHICLE
20-0102865 400 S DONAGHEY AV 2020-01-18 01:22:10.943 CHECKING VEHICLE
20-0102864 709 S DAVIS ST 2020-01-18 01:12:48.827 CHECKING VEHICLE
20-0102862 2725 LONGBOW LN 2020-01-18 00:54:07.843 CHECKING BUILDING
20-0102861 2108 BROADVIEW AV 2020-01-18 00:15:45.163 CIVIL STAND BY
20-0102860 1760 POINSETTIA DR 2020-01-18 00:12:57.997 SHOTS FIRED
20-0102856 2108 BROADVIEW AV 2020-01-17 23:45:18.507 CIVIL MATTER
20-0102855 801 S SALEM RD 2020-01-17 23:38:02.753 ATTEMPT TO CONTACT
20-0102854 20-00633 515 3RD AV 2020-01-17 23:22:32.787 CRIMINAL MISCHIEF
20-0102853 20-00634 915 NEWKIRK DR 2020-01-17 23:16:39.053 CIVIL MATTER
20-0102852 1325 SAWYER LN 2020-01-17 22:25:24.117 LOG VEHICLE
20-0102849 900 LOCUST AV 2020-01-17 22:11:29.007 ALARM
20-0102848 20-00631 1626 DAVIS ST 2020-01-17 22:09:39.577 HARASSING COMMUNICATIONS
20-0102847 475 ROBINS ST 2020-01-17 22:07:39.660 SUSPICIOUS PERSON
20-0102845 325 S MITCHELL ST 2020-01-17 22:06:28.787 SUSPICIOUS ACTIVITY
20-0102842 1 AZALEA LN 2020-01-17 21:39:32.483 CHECKING PERSON
20-0102840 207 WILLOW ST 2020-01-17 21:19:02.053 DOMESTIC DISTURBANCE
20-0102839 1601 HOGAN LN 2020-01-17 21:11:24.827 ATTEMPT TO CONTACT
20-0102838 1090 JIM'S LN 2020-01-17 21:03:28.657 ALARM
20-0102837 1830 HOGAN LN 2020-01-17 20:53:41.530 SHOTS FIRED
20-0102834 1375 THOMAS G WILSON DR 2020-01-17 20:45:41.830 SUPPLEMENT REPORT CALL
20-0102832 340 LOCUST AV 2020-01-17 20:27:05.160 SUSPICIOUS VEHICLE
20-0102831 1040 APPLEWOOD DR 2020-01-17 20:18:50.277 SUSPICIOUS VEHICLE
20-0102830 2525 DONAGHEY AV 2020-01-17 20:17:13.300 ATTEMPT TO CONTACT
20-0102829 20-00630 600 ELSINGER BLVD 2020-01-17 20:11:40.740 SHOPLIFTING
20-0102828 401 2ND ST 2020-01-17 19:58:20.260 CHECK ON THE WELFARE
20-0102827 1235 JOSIE REA ST 2020-01-17 19:57:04.347 SUPPLEMENT REPORT CALL
20-0102825 1200 S AMITY RD 2020-01-17 19:53:09.300 ACCIDENT - PROPERTY DAMAGE
20-0102824 1200 E DAVE WARD DR 2020-01-17 19:47:22.910 STALLED VEHICLE
20-0102823 20-00629 1720 PECAN CREEK DR 2020-01-17 19:38:46.990 BURGLARY
20-0102822 20-00628 705 E SIEBENMORGEN RD 2020-01-17 19:20:21.620 ACCIDENT - PRIVATE PROPERTY
20-0102821 1912 HOGAN LN 2020-01-17 19:18:38.660 ATTEMPT TO CONTACT
20-0102820 1810 HOGAN LN 2020-01-17 18:42:39.593 DOMESTIC DISTURBANCE
20-0102819 20-00626 420 E OAK ST 2020-01-17 18:36:24.063 ACCIDENT - PROPERTY DAMAGE
20-0102818 1900 E DAVE WARD DR 2020-01-17 18:30:24.320 ACCIDENT - PROPERTY DAMAGE
20-0102817 1225 JOSIE REA ST 2020-01-17 18:28:29.423 ATTEMPT TO CONTACT
20-0102816 20-00627 310 FAIRWAY DR 2020-01-17 18:12:20.197 SHOTS FIRED
20-0102815 20-00624 1200 E DAVE WARD DR 2020-01-17 18:11:52.990 ACCIDENT - PROPERTY DAMAGE
20-0102813 1120 EAST GERMAN LN 2020-01-17 18:05:06.027 CHECKING PERSON
20-0102810 900 SOUTH GERMAN LN 2020-01-17 17:15:34.710 RECKLESS DRIVER
20-0102809 1010 OAK ST 2020-01-17 17:09:13.770 ABANDONED VEHICLE
20-0102808 835 S DONAGHEY AV 2020-01-17 17:03:11.840 RECKLESS DRIVER
20-0102805 1105 PRAIRIE ST 2020-01-17 16:34:37.870 ATTEMPT TO CONTACT
20-0102802 20-00623 621 OAK ST 2020-01-17 16:15:51.263 ACCIDENT - PRIVATE PROPERTY
20-0102800 650 SKYLINE DR 2020-01-17 15:58:09.903 STALLED VEHICLE
20-0102799 608 S BARIDON ST 2020-01-17 15:56:22.210 LOUD NOISE-MUSIC
20-0102794 3965 TAILHOOK DR 2020-01-17 15:31:50.187 ATTEMPT TO CONTACT
20-0102792 100 SKYLINE DR 2020-01-17 15:26:41.680 RECKLESS DRIVER
20-0102790 1400 PADGETT RD 2020-01-17 15:20:32.190 STALLED VEHICLE
20-0102789 20-00621 2670 DONAGHEY AV 2020-01-17 15:10:12.340 BREAKING OR ENTERING
20-0102788 1170 S AMITY RD 2020-01-17 15:06:38.093 THEFT OF PROPERTY
20-0102787 20-00617 900 PARKWAY ST 2020-01-17 14:50:30.607 ACCIDENT - PROPERTY DAMAGE
20-0102786 2799 SALEM RD 2020-01-17 14:44:42.927 STALLED VEHICLE
20-0102783 3035 ROBERT OTT CIR 2020-01-17 14:13:15.520 ALARM
20-0102781 707 ROBINS ST 2020-01-17 14:10:38.177 ATTEMPT TO CONTACT
20-0102777 20-00618 1272 S AMITY RD 2020-01-17 13:47:03.003 THEFT OF PROPERTY
20-0102776 2107 LOOKOUT AV 2020-01-17 13:20:51.670 CIVIL STAND BY
20-0102774 706 CLARA DR 2020-01-17 13:14:52.437 SUPPLEMENT REPORT CALL
20-0102770 815 E OAK ST 2020-01-17 12:59:27.333 PROPERTY DAMAGE
20-0102765 1620 MIDDLE RD 2020-01-17 12:41:02.053 UNAUTHORIZED USE OF MOTOR VEHICLE
20-0102764 20-00613 801 ELSINGER BLVD 2020-01-17 12:36:33.743 SHOPLIFTING
20-0102761 201 SKYLINE DR 2020-01-17 12:22:07.507 AGENCY ASSIST
20-0102760 20-00611 2620 BRUCE ST 2020-01-17 11:58:27.047 FOUND PROPERTY
20-0102759 20-00609 5 CAMILLA LN 2020-01-17 11:52:09.827 HARASSING COMMUNICATIONS
20-0102758 20-00610 2210 ROBINSON AV 2020-01-17 11:50:35.313 PROPERTY DAMAGE
20-0102756 2280 SANDERS ST 2020-01-17 11:44:14.237 AGENCY ASSIST
20-0102750 1900 TYLER ST 2020-01-17 10:57:11.483 ATTEMPT TO CONTACT
20-0102747 20-00608 2325 DAVE WARD DR 2020-01-17 10:49:24.817 PROPERTY DAMAGE
20-0102746 2890 FLOYD DR 2020-01-17 10:45:40.867 SUPPLEMENT REPORT CALL
20-0102745 20-00604 1600 WESTLAKE DR 2020-01-17 10:42:24.923 THEFT OF PROPERTY
20-0102744 20-00605 2020-01-17 10:40:58.513 RECOVERED PROPERTY
20-0102743 20-00606 4095 PRINCE ST 2020-01-17 10:39:05.810 ACCIDENT - PRIVATE PROPERTY
20-0102736 1001 MCNUTT RD 2020-01-17 10:08:46.713 CHECK ON THE WELFARE
20-0102734 20-00603 312 FARRIS RD 2020-01-17 10:02:34.727 BREAKING OR ENTERING
20-0102733 20-00602 1235 JOSIE REA ST 2020-01-17 09:49:40.480 ABANDONED VEHICLE
20-0102732 5580 PRINCE ST 2020-01-17 09:46:19.663 FOUND PROPERTY
20-0102727 1105 PRAIRIE ST 2020-01-17 09:33:51.603 SUPPLEMENT REPORT CALL
20-0102725 20-00601 1375 THOMAS G WILSON DR 2020-01-17 09:24:36.827 BREAKING OR ENTERING
20-0102723 2619 W MARTIN ST 2020-01-17 09:22:36.570 SUPPLEMENT REPORT CALL
20-0102718 20-00599 1601 HOGAN LN 2020-01-17 09:04:42.623 TERRORISTIC THREATENING
20-0102711 20-00600 321 CLUB LN 2020-01-17 08:56:26.593 BREAKING OR ENTERING
20-0102709 4025 IRBY DR 2020-01-17 08:47:59.000 SUPPLEMENT REPORT CALL
20-0102708 2890 FLOYD DR 2020-01-17 08:42:55.660 BREAKING OR ENTERING
20-0102707 20-00597 2619 W MARTIN ST 2020-01-17 08:39:01.220 BREAKING OR ENTERING
20-0102706 20-00598 2100 DAVE WARD DR 2020-01-17 08:38:59.337 ACCIDENT - PROPERTY DAMAGE
20-0102705 307 FARRIS RD 2020-01-17 08:29:39.560 BREAKING OR ENTERING
20-0102703 312 FARRIS RD 2020-01-17 08:26:45.517 BREAKING OR ENTERING
20-0102702 310 HUBBARD RD 2020-01-17 08:26:16.977 BREAKING OR ENTERING
20-0102701 20-00596 316 HUBBARD RD 2020-01-17 08:23:26.583 BREAKING OR ENTERING
20-0102697 20-00595 2514 W MARTIN ST 2020-01-17 08:07:21.597 BREAKING OR ENTERING
20-0102695 20-00594 2890 FLOYD DR 2020-01-17 07:56:04.627 BREAKING OR ENTERING
20-0102692 945 SALEM RD 2020-01-17 07:49:28.833 TRAFFIC PROBLEM-CONTROL
20-0102690 504 E OAK ST 2020-01-17 07:35:41.077 CHECK ON THE WELFARE
20-0102688 20-00593 307 FARRIS RD 2020-01-17 07:31:12.453 BREAKING OR ENTERING
20-0102687 850 OAK ST 2020-01-17 07:29:28.720 CHECK ON THE WELFARE
20-0102685 805 MONROE ST 2020-01-17 06:53:19.623 ALARM - BANK
20-0102683 20-00592 500 ELSINGER BLVD 2020-01-17 06:32:34.250 THEFT OF PROPERTY
20-0102681 2824 PRINCE ST 2020-01-17 04:31:53.270 CHECKING BUILDING
20-0102679 2001 SALEM RD 2020-01-17 04:30:40.010 FOUND PROPERTY
20-0102677 1050 JOHN MASON DR 2020-01-17 04:11:44.477 CHECKING BUILDING
20-0102676 4850 FRISCO LN 2020-01-17 03:53:49.893 BARKING DOG COMPLAINT
20-0102675 322 ASH ST 2020-01-17 02:40:20.343 SUSPICIOUS ACTIVITY
20-0102674 124 I40EB 2020-01-17 02:11:04.230 AGENCY ASSIST
20-0102673 1840 POTTER ST 2020-01-17 02:09:35.080 FIRE DEPT ASSIST
20-0102671 2360 SANDERS ST 2020-01-17 01:42:31.673 DOMESTIC DISTURBANCE
20-0102669 20-00591 2840 DAVE WARD DR 2020-01-17 01:28:39.340 THEFT OF PROPERTY
20-0102668 20-00590 725 4TH AV 2020-01-17 01:23:08.640 THEFT OF SERVICES
20-0102667 707 ROBINS ST 2020-01-17 01:15:45.563 CHECKING VEHICLE
20-0102666 2890 DAVE WARD DR 2020-01-17 01:15:37.127 SUSPICIOUS VEHICLE
20-0102665 3715 PRINCE ST 2020-01-17 01:01:04.533 CHECKING BUILDING
20-0102664 855 SOUTH GERMAN LN 2020-01-17 00:58:56.003 CHECKING VEHICLE
20-0102663 101 OAK ST 2020-01-17 00:51:47.087 CHECKING PERSON
20-0102662 2395 ORCHID 2020-01-17 00:18:05.560 LOUD NOISE-MUSIC
20-0102661 20-00589 2710 PRINCE ST 2020-01-17 00:05:46.580 CHECK ON THE WELFARE
Call Number Case Number Address Call Time Incident Type

General Contacts

POLICE HEADQUARTERS
1105 Prairie Street
Conway, AR 72032

Conway Police Department


  911 (EMERGENCIES ONLY)

  501.450.6120 (non-emergency)

ANONYMOUS TIPS
 Leave a message at 501.450.6135
 Text CONWAY and your tip to 274637 (CRIMES) Click for an Example

   

City of Conway

We, the members of the Conway Police Department, are committed to protecting and serving the citizens of Conway, Arkansas. That is our highest calling, as we pledge to join hands with others in carrying out our sworn duty to uphold the law.

Chief Jody Spradlin

Latest Tweets